GFSSE_con_mlcape_060.txt.gz
CAPE
4 135 944 1294 906 955 1193 1095 1181 1327 1455 1309 1626 1713 1620 1644 1783 1856 1851 1787 1895 1613 1295 1018 860 858 759 897 1152 1357 1507 1689 919 1236 1725 1728 1561 1701 1889 1795 1668 1570 1678
14 373 1056 1425 1002 1101 1502 1245 1429 1521 1374 1636 1508 1591 1587 1599 1648 1788 1883 1990 1763 1356 914 1111 1553 1584 952 471 954 880 1436 1462 997 1216 1673 1879 1866 1832 1728 1583 1703 1726 1655
65 664 1107 1349 1131 1192 1308 1292 1644 1559 1681 1534 1729 1673 1744 1771 1794 1877 1818 1744 1876 1342 1137 1315 1447 1421 1335 337 726 830 979 1480 1533 1251 1437 1421 1790 1686 1703 1821 1704 1630 1669
519 923 1172 1387 1187 1213 1129 1464 1463 1538 1576 1818 1751 1620 1552 1735 1765 1832 1880 1809 1780 1753 1520 1558 1453 1389 1205 756 521 944 819 487 901 1012 995 1075 1242 1655 1656 1597 1457 1588 1629
679 1046 1271 1201 1229 1029 1034 1629 1615 1524 1651 1433 1438 1353 1308 1240 1173 1429 1773 1884 1740 1592 1567 1504 1423 1367 1334 1189 794 616 616 474 837 677 782 949 1037 1019 1205 1650 1468 1630 1482
871 1283 1321 974 857 872 1352 1690 1685 1559 1480 1452 1740 1846 1678 1641 1605 1642 1414 1432 1476 1537 1526 1461 1378 1316 1241 1139 742 625 761 785 1004 717 905 1081 1324 1390 1536 1680 1498 1517 1510
717 1303 1539 1256 1076 1452 1418 1751 1456 1724 1551 1575 1729 1744 1783 1899 1628 1614 1581 1581 1580 1512 1415 1339 1284 1206 1192 1061 929 870 1001 851 571 683 754 1300 1667 1611 1608 1405 1413 1332 1482
759 1178 1395 1347 1593 1488 1528 1670 1610 1536 1559 1745 1726 1821 1877 1979 1753 1617 1641 1666 1681 1627 1619 1594 1493 1347 1034 893 813 660 876 1319 375 354 754 1285 1582 1551 1524 1334 1533 1501 1434
890 1016 1275 1347 1177 1499 1542 1637 1594 1445 1581 1724 1642 1593 1663 1685 1774 1758 1598 1522 1484 1431 1420 1384 1359 1225 856 752 608 799 1120 1141 661 642 1183 1331 1601 1752 1672 1613 1505 1474 1235
730 732 948 848 844 1509 1615 1544 1476 1461 1510 1617 1502 1290 1297 1416 1503 1415 1303 1544 1596 1541 1407 1278 1117 1178 1117 479 899 818 1045 1350 716 835 1080 1569 1685 1571 1591 1769 1396 1311 1425
591 681 678 565 1138 1325 1501 1525 1506 1397 1357 1380 1243 1051 1155 1015 1082 1213 1062 1341 1345 1353 1242 1201 1119 998 928 543 616 710 574 887 922 693 776 1288 1663 1786 1497 1619 1410 1219 1375
297 448 365 607 720 892 1008 1128 962 1017 1123 1120 933 827 745 967 1022 1146 1046 1003 1331 1306 1496 1214 1296 1087 1066 607 739 717 313 364 886 750 798 880 1396 1583 1450 1225 1594 1493 1343
93 147 478 437 243 172 288 624 456 562 526 639 657 492 662 1010 1199 1580 742 721 906 660 14 264 305 304 616 793 1037 1031 892 256 745 649 911 1433 927 993 1378 1316 681 643 1085
24 0 388 581 160 140 94 143 103 224 394 664 342 205 735 858 1067 1072 636 650 802 590 261 494 460 475 548 812 1124 1257 1012 520 724 511 1007 1609 1686 1285 1440 1356 1200 688 569
0 0 13 422 297 156 61 0 116 316 582 826 940 193 752 624 660 714 699 678 448 611 527 653 712 710 590 539 486 763 725 608 553 537 945 1113 1518 1568 1307 1551 1391 1415 853
0 0 0 180 265 155 80 0 135 246 286 656 1045 888 761 52 476 641 649 508 630 610 371 737 805 660 611 556 579 642 471 413 261 331 609 1174 1333 1652 1325 1255 1417 1391 1543
0 0 0 63 224 146 156 10 192 442 213 459 964 1086 630 483 733 802 577 653 916 766 394 417 798 704 672 215 251 291 412 298 157 65 164 542 1082 1391 1420 1625 1407 1424 1389
0 0 0 45 265 284 293 245 695 527 189 539 995 834 657 921 1020 654 800 1073 1015 1055 889 843 794 363 112 118 119 95 245 280 242 181 44 177 508 755 1258 1493 1396 1245 1425
0 0 1 19 346 301 393 319 336 484 514 143 635 588 638 1246 1067 696 598 690 731 890 673 844 334 308 441 404 191 23 104 217 238 224 169 135 195 358 623 753 1107 1103 1285
97 23 0 3 289 190 165 161 152 309 362 504 388 348 284 748 1042 759 588 447 436 751 533 724 348 613 226 6 8 5 30 95 93 135 214 186 82 86 116 296 725 681 715
17 166 7 4 25 24 32 89 33 182 274 317 77 289 346 530 1097 885 465 572 207 792 742 736 377 90 43 0 0 0 0 11 49 42 125 198 178 167 21 77 116 115 186
24 113 66 27 15 61 61 27 79 43 91 213 81 108 428 638 996 1120 874 728 516 775 808 796 571 301 1 0 0 0 0 3 5 6 0 47 85 134 68 79 42 30 48
40 6 22 88 61 118 182 53 43 129 4 199 116 0 429 740 1043 1373 1248 917 1047 1040 885 774 593 501 86 0 0 0 0 0 0 4 0 0 37 69 50 68 56 48 107
118 7 0 133 160 174 342 172 73 1 87 126 62 0 38 821 1284 1498 1185 982 992 980 865 847 627 320 58 0 0 0 2 0 0 0 0 0 1 20 14 32 101 127 119
206 18 74 164 228 253 406 310 207 151 179 303 110 45 4 292 1051 1330 1349 1227 880 929 832 766 680 494 317 1 0 0 0 0 0 0 0 0 0 0 0 9 76 112 151
188 103 24 190 289 341 433 432 327 218 90 109 179 126 28 29 521 1290 1470 1317 983 869 1046 837 788 817 881 533 0 0 0 0 0 0 0 0 0 0 0 7 37 64 81

GFSSE_con_mlcape_063.txt.gz
CAPE
5 303 857 806 1174 1207 1295 1429 1789 1464 1726 1878 1790 1757 1903 1860 1882 1967 1873 1835 1785 1619 1343 946 914 922 1007 1306 1515 1420 1460 1301 1750 1883 1864 1870 1937 1965 1823 1629 1652 1606 1526
19 520 1127 964 1181 1302 1382 1721 1606 1695 1825 1845 1759 1785 1868 1893 1923 2067 2031 1880 1481 1124 1099 1686 1454 621 849 962 1122 1287 1528 1060 1541 1754 1882 1985 1963 1829 1687 1551 1518 1664 1527
89 762 1397 974 1303 1391 1425 1611 1547 1566 1647 1779 1768 1857 1867 1884 1950 1891 1940 1850 1134 1159 1601 1604 1511 819 457 899 857 1323 1407 1288 1351 1832 1824 1472 1641 1447 1499 1691 1666 1511 1558
357 929 1311 1014 1271 1314 1570 1681 1734 1666 1901 2015 1810 1921 2071 1849 1829 1853 1934 1885 1792 1567 1676 1580 1463 1107 595 799 847 1171 1335 1540 1348 1455 1091 1275 1329 1439 1594 1566 1573 1570 1483
642 983 1305 1133 1210 1315 1603 1664 1557 1691 1519 1387 1241 1178 1212 1504 1882 1920 1828 1673 1701 1725 1643 1541 1504 1357 1064 819 798 669 744 1258 1237 760 926 908 1330 1511 1604 1609 1595 1395 1482
752 1093 1561 1234 1178 1192 1628 1650 1623 1470 1422 1857 1769 1718 1772 1405 1288 1513 1663 1766 1749 1665 1556 1467 1443 1426 690 721 723 762 919 1067 840 818 922 842 599 1472 1602 1417 1395 1488 1472
888 1137 1235 1240 1078 1310 1686 1699 1563 1497 1513 1909 1605 1870 1739 2033 1906 1574 1641 1641 1610 1489 1411 1375 1335 1204 1187 663 572 726 993 1063 718 807 981 1502 1520 1617 1629 1398 1389 1531 1452
845 952 1025 1111 1298 1513 1789 1608 1774 1494 1662 1703 1725 1684 1831 1701 1750 1794 1825 1818 1760 1687 1646 1561 1314 963 831 910 633 714 1023 950 704 725 1136 1414 1532 1507 1436 1581 1480 1476 1403
1138 1103 1051 1137 1553 1557 1742 1691 1762 1539 1675 1740 1791 1832 1917 1874 1752 1694 1676 1677 1665 1644 1616 1509 1343 740 827 838 764 967 1184 673 268 750 1275 1314 1493 1670 1639 1575 1593 1488 1396
925 892 915 1290 1297 1512 1653 1608 1625 1537 1698 1600 1558 1539 1653 1702 1780 1728 1569 1745 1749 1698 1524 1440 1331 976 577 440 793 863 1280 1092 475 1091 1175 1468 1760 1668 1629 1713 1560 1419 1351
760 820 967 896 1184 1321 1460 1484 1440 1496 1530 1531 1431 1305 1331 959 1258 1367 1159 1646 1615 1586 1474 1347 1202 1012 854 568 835 911 847 808 773 925 1208 1514 1538 1665 1761 1381 1541 1440 1462
447 650 682 522 729 1161 1327 1426 1124 1252 1282 1241 1119 1088 850 848 822 921 1055 1521 1691 1520 1370 1278 1044 1015 534 469 799 681 217 829 722 685 893 1445 1745 1478 1618 1637 1166 1277 1492
249 545 472 354 819 895 747 840 738 741 756 743 726 648 768 989 1079 1192 921 1047 888 972 29 392 255 395 743 736 819 830 445 556 840 831 650 1326 1664 1427 1323 1317 1624 1644 1344
131 264 235 326 413 321 220 293 210 224 417 534 565 341 469 767 915 1135 844 438 678 581 390 288 298 344 481 648 1003 1117 962 507 673 725 892 1253 1035 1368 1348 875 588 605 964
9 31 0 108 2 0 0 70 78 92 241 358 518 33 618 785 809 909 661 545 608 534 519 505 603 727 651 589 531 658 980 680 655 489 831 1714 1295 1402 1411 1317 1006 756 618
0 0 0 193 0 0 0 0 0 100 290 555 750 502 465 527 536 666 629 503 411 446 405 584 417 629 485 539 553 618 574 564 516 450 848 1518 1637 1462 1298 1446 1231 1238 954
0 0 0 104 6 0 0 0 0 95 219 355 748 938 748 322 308 659 518 458 646 542 395 306 374 474 276 195 340 498 346 302 238 270 584 633 1278 1618 1329 1266 1335 1366 1391
0 0 0 4 47 0 24 0 0 180 286 216 460 821 855 478 583 687 402 662 743 687 412 410 279 337 153 96 90 141 251 225 125 57 105 313 719 1075 1394 1389 1413 1166 1277
0 0 0 0 48 26 7 40 9 488 239 239 378 617 817 741 902 521 588 849 755 735 582 450 357 230 141 436 234 67 143 234 144 106 30 48 194 480 609 774 1050 1088 1211
0 0 0 0 20 55 84 45 68 419 344 184 416 697 678 889 937 586 522 625 519 726 522 577 454 471 261 6 23 22 48 102 164 112 127 77 29 113 232 376 533 602 725
0 0 0 0 5 16 94 145 181 142 320 352 178 598 407 944 1030 663 338 407 235 556 464 480 415 204 7 0 0 1 6 12 35 104 125 138 68 7 8 37 140 267 182
0 0 0 0 0 12 157 222 81 0 84 200 172 124 345 408 942 824 460 523 122 576 718 610 524 102 26 0 0 0 0 1 4 2 0 64 100 81 69 15 29 52 59
1 1 0 0 0 7 133 53 75 12 2 96 114 47 188 425 748 983 826 534 487 555 723 607 571 298 63 0 0 0 0 0 0 0 0 0 18 51 60 49 74 46 26
0 0 39 0 0 0 18 24 1 0 0 3 26 47 27 445 619 900 1078 1051 813 901 917 668 660 348 77 0 0 0 0 0 0 0 0 0 0 16 43 45 60 60 33
0 0 0 3 9 0 13 3 0 0 0 0 0 21 0 207 635 892 1119 1125 858 861 874 738 747 445 159 0 0 0 0 0 0 0 0 0 0 0 3 9 28 74 100
8 0 0 0 41 25 27 32 13 1 0 0 0 0 1 0 308 781 1182 1186 1029 868 843 719 688 632 243 294 5 0 0 0 0 0 0 0 0 0 0 13 17 78 140

GFSSE_con_mlcape_069.txt.gz
CAPE
194 195 288 915 1034 1383 1386 1458 1538 1606 1275 1283 1396 1400 1312 1371 1621 1661 1784 1907 1638 1249 1071 1075 1294 1846 1971 1856 1724 1911 1990 2140 2150 2315 2045 1981 1962 2084 1923 1634 1313 1126 1620
161 310 924 1188 1189 1491 1441 1710 1726 1673 1972 1951 1469 1488 1568 1870 1931 1664 1775 1612 1171 1365 1007 887 994 1187 1171 1529 1437 1509 1733 2020 1954 1979 2059 1816 1731 1845 1744 1474 1340 1388 1423
205 627 803 1175 1286 1712 1521 1776 1979 1626 1651 1911 2140 2014 1732 1879 1774 1988 1583 1159 1790 1595 1362 725 921 1010 1321 1035 1142 1531 1969 1927 2005 2158 1878 1588 1465 1855 1815 1749 1613 1676 1526
274 762 831 1115 1524 1487 1624 1590 1661 1678 1817 1917 1879 1800 1804 1673 1721 1554 1214 1562 1693 1731 1153 871 701 897 1027 1505 1511 1616 1582 2008 1833 1650 1562 1214 1431 1831 1739 1727 1492 1504 1585
420 697 1145 1106 1532 1621 1532 1714 1801 1829 1809 1637 1736 1623 1866 1634 1458 1640 1575 1851 1799 1679 1398 1395 1213 946 1161 1453 1350 1214 1469 1437 1379 1362 1626 1572 1177 1651 1791 1653 1542 1465 1363
292 621 1231 1216 1729 1751 1544 1637 1648 1378 1244 1258 1412 1645 1747 1815 1707 1807 1843 1868 1670 1611 1441 1324 1166 1175 1025 1012 703 891 1410 1418 1057 941 1146 1230 1050 1808 1576 1472 1525 1519 1533
157 469 892 1313 1248 1164 1610 1318 1394 1785 1575 1673 1673 1438 1597 1718 1730 1879 1869 1788 1649 1127 1511 1434 1129 961 1068 1157 1056 1201 1387 1280 733 640 691 1506 1434 1618 1618 1620 1574 1513 1451
267 352 606 1189 1428 1319 1291 1306 1599 1714 1733 1714 1834 1559 1818 1738 1797 1815 1763 1703 1610 1492 1405 1481 1361 1015 1018 1089 1224 1277 1541 1106 556 1232 1651 1452 1453 1589 1508 1622 1588 1488 652
496 457 619 595 1362 1713 1396 1325 1457 1665 1789 1628 1737 1751 1472 1514 1729 1792 1925 1803 1666 1523 1342 1372 1293 1026 623 1021 868 1248 1400 861 899 1162 1216 1606 1331 1594 1645 1615 1591 1361 1034
644 724 730 733 919 1564 1470 1292 1572 1594 1746 1599 1616 1453 1557 1752 1792 1626 1352 1479 1600 1455 1464 1364 1232 1052 1040 1347 1297 1471 1216 640 858 897 1199 1337 1343 1152 1749 1527 1497 1343 1352
912 494 361 597 993 1357 1482 1184 1496 1538 1514 1521 1459 1664 1389 1608 1628 1386 1191 1119 1305 1238 1107 1211 1122 962 1083 1137 1438 1362 1199 1048 999 719 1100 1326 1259 1458 1629 1560 1527 1387 1259
273 221 123 541 764 1093 1003 1314 1323 1201 1101 1254 1360 1439 1099 1220 1330 1147 1066 1024 997 1202 1350 1261 1347 1156 1082 1198 1074 1031 1280 1341 1165 831 645 1182 1443 1528 1492 1598 1422 1499 1417
0 18 159 891 916 999 806 1131 1039 1084 1059 1177 1422 1383 1329 1402 1490 1277 1149 1140 1020 464 656 833 814 1061 1091 1308 1341 1141 1279 1283 1130 740 637 1215 1420 1352 1450 1080 1439 1343 1400
163 47 517 896 934 1120 929 878 808 821 961 1062 1196 1122 1286 1411 1496 1423 877 1112 1154 1381 886 955 910 1154 1360 1583 1524 1380 989 1211 1135 621 566 1478 1298 1042 1028 1277 1378 1173 1068
253 148 527 756 747 1036 995 889 616 700 747 948 1117 978 936 1284 1333 1618 936 1025 1331 1288 1145 1212 1286 1121 1359 1399 1381 1678 1158 1230 1078 511 508 657 845 1155 1197 767 557 541 624
207 185 444 578 490 888 692 537 470 576 741 873 1073 941 791 1346 1365 1385 1056 1210 1125 1199 1101 1087 1299 1205 1342 1330 1231 1204 1540 1222 1153 684 452 1251 904 950 1077 1039 646 477 517
158 215 350 331 300 564 434 190 321 346 403 614 854 1121 1121 1087 1018 1266 887 600 1335 1143 1081 973 1143 1016 783 590 1087 1218 1210 1246 1072 716 566 681 1022 1016 1093 1239 1050 1013 1232
97 182 288 17 61 311 158 19 78 165 314 629 934 1202 1389 1398 1171 874 1082 889 1285 1359 931 793 536 918 663 711 661 977 956 937 925 804 623 648 586 820 1057 1098 1209 1268 972
101 122 104 0 0 0 5 0 0 93 225 504 620 780 1004 1396 1205 1181 1166 1196 731 1261 1185 994 866 765 751 1090 768 658 878 803 584 373 503 580 584 626 843 855 803 1115 1072
69 85 32 16 0 6 0 27 16 67 192 462 738 903 1019 1211 1365 1356 1118 1120 742 632 1033 1008 772 841 402 58 84 181 537 726 831 682 591 482 488 497 487 804 848 780 742
96 11 0 0 4 45 0 0 84 136 426 880 523 789 891 1107 1389 1405 1173 1191 1196 1183 1215 1235 826 699 24 17 37 43 67 104 446 791 804 670 756 722 552 501 554 579 561
109 33 0 0 0 24 0 52 297 392 463 991 667 835 952 1226 1359 1431 1162 920 796 938 551 696 907 670 361 0 17 7 2 51 154 264 459 540 685 756 687 593 557 573 654
74 73 0 0 0 0 21 165 227 290 267 504 642 521 678 1091 1256 1437 1366 775 820 914 654 607 629 827 341 0 0 3 0 0 7 233 330 398 352 480 679 756 747 617 581
98 111 41 6 0 0 0 40 115 165 167 314 651 638 593 850 947 1190 1382 1310 1196 916 616 765 873 1037 734 442 0 7 28 0 0 27 153 277 310 258 442 530 534 636 591
66 55 36 30 7 0 0 32 185 369 393 421 423 529 485 539 674 862 1215 1426 995 1281 1061 1187 955 838 1029 647 69 0 27 250 44 87 6 75 188 323 344 398 446 483 564
40 0 0 14 0 11 19 9 45 164 340 219 197 213 436 529 676 714 1052 1304 1489 1247 1412 1177 1019 1031 1128 819 341 11 16 0 90 336 212 205 128 188 149 242 343 527 452

GFSSE_con_mlcape_072.txt.gz
CAPE
323 271 295 570 1005 1278 1397 1303 1217 1647 1849 1842 1862 1823 1612 1530 1609 1718 1912 1828 1460 1206 1177 1420 1938 2085 2047 1933 2046 1901 2066 2306 2138 2054 2081 2090 2023 1878 1691 1307 1190 1195 1614
371 287 552 1158 1427 1537 1539 1455 1477 1252 1368 1673 1620 1552 1567 1674 1804 1939 1885 1435 1227 1173 1041 1124 1281 1509 1723 1539 1708 1851 2167 2208 2343 2197 1925 1593 2085 1672 1660 1619 1266 1359 1439
374 606 876 1386 1587 1621 1775 1857 1780 1969 2118 1797 1626 1669 1920 2073 1993 1829 1409 1572 1800 1427 842 1040 1182 1385 1159 1193 1524 2169 2130 2206 2180 2051 1809 1453 1477 1638 1822 1707 1822 1630 1287
620 725 670 1536 1621 1724 1938 1829 1779 1827 2138 2017 2027 1845 2034 1769 1944 1502 1393 1867 1857 1296 1006 871 1025 1280 1656 1285 1662 1661 2094 2064 1849 1775 1456 1290 1100 1798 1720 1750 1503 1584 1512
501 514 722 1627 1557 1751 1646 1764 1811 1777 2024 1877 1758 1351 1417 1454 1561 1352 1721 1370 1767 1539 1573 1257 978 1247 1533 1598 1698 1616 1721 1672 1324 1253 1293 1256 988 1660 1723 1658 1445 1393 1286
511 406 888 1624 1778 1562 1951 1824 1842 1879 1826 1852 1554 1478 1412 1483 1622 1804 1896 1669 1677 1486 1459 1385 1364 1262 1150 1015 940 1479 1645 1024 1189 994 853 1034 1305 1678 1555 1635 1313 1506 1287
200 426 682 1751 1867 1668 1716 1386 1209 1151 1341 1344 1590 1549 1654 1659 1693 1791 1757 1671 1315 1614 1524 1275 1181 1280 1342 1237 1309 1453 1489 935 509 596 1121 1314 1530 1763 1698 1692 1484 1444 574
120 148 510 1126 1151 1778 1196 1534 1639 1858 1827 1699 1797 1708 1676 1698 1706 1634 1686 1583 1335 1387 1540 1434 1302 1212 1175 1120 1190 1647 1455 478 795 1235 1095 1100 1490 1729 1738 1622 1549 675 685
18 105 402 943 1200 1234 1262 1548 1444 1644 1793 1655 1606 1703 1636 1593 1654 1789 1767 1641 1523 1505 1511 1423 1188 949 1111 1202 1013 1367 815 712 720 865 1050 958 1231 1724 1672 1637 1451 945 1291
13 143 213 748 1200 733 752 1548 1707 1578 1584 1841 1744 1531 1761 1732 1444 1323 1088 1641 1620 1455 1372 1283 1097 1049 1161 1293 1269 1047 602 792 433 710 1069 1096 1496 1764 1703 1644 1541 1522 1314
32 72 139 422 1259 826 714 1373 1346 1664 1642 1558 1458 1209 1544 1305 1291 1305 926 1444 1536 1370 1380 1245 1031 1120 1286 1085 1219 983 1179 566 385 471 862 1261 1029 1716 1584 1652 1528 1320 1272
42 29 16 204 848 703 697 817 961 822 881 1099 1270 1440 1173 1341 1335 1063 921 1221 1360 1406 1307 1258 1163 852 1198 1025 936 1049 1086 966 396 410 839 1308 1456 1418 1694 1485 1276 1451 1305
32 1 0 266 629 506 864 701 829 819 893 1236 1382 1328 1191 1220 1194 1087 1054 872 913 945 969 901 905 1102 1159 1116 1198 983 962 1023 741 350 960 1565 1517 1537 1122 1380 1240 1360 1294
0 0 0 389 589 559 689 569 599 614 666 687 1102 1561 1468 1197 1476 1166 1075 1031 1435 1349 1009 1197 1172 1509 1428 1366 1274 909 1006 732 567 439 829 1570 1099 1269 1531 1483 1453 1065 1200
0 0 89 428 643 691 779 524 432 605 708 759 1070 1305 1329 1550 1327 1223 1353 1438 1417 1352 1234 1287 1310 1303 1369 1293 1237 1258 1041 923 443 288 624 980 1013 1176 775 576 469 540 641
0 0 160 379 587 729 640 813 693 946 1058 950 1134 1268 1696 1683 1217 1246 1219 1457 1363 1308 1175 1341 1104 1314 1096 1107 985 1179 1156 1100 769 450 572 686 687 1119 1164 761 797 507 463
0 0 96 264 359 704 626 762 626 872 951 1056 1279 1656 1491 1679 1460 1174 1148 1311 1281 1333 1643 1216 999 1417 551 770 937 976 987 1199 923 718 607 734 859 744 870 1224 1039 1100 1050
0 0 78 0 0 475 452 370 519 676 714 853 1010 1296 1776 1753 1454 1047 987 1179 1461 1362 1089 952 807 708 330 505 575 486 472 773 984 958 777 758 732 1048 685 609 982 1143 1052
8 50 18 0 0 217 386 218 352 515 710 901 1020 1156 1629 1886 1837 1587 1035 887 1105 1142 549 340 503 645 325 218 238 417 600 474 456 453 706 852 703 577 735 850 551 868 1047
36 79 25 0 0 86 80 122 163 361 605 819 909 976 1557 1724 1892 1663 980 1121 1004 545 583 689 526 688 332 105 74 210 434 519 371 335 520 484 481 477 370 679 1115 1033 326
10 50 17 0 0 22 0 0 134 284 490 830 1117 1406 1749 1763 1882 1889 1314 1075 1035 797 1019 624 1029 807 116 297 39 123 78 385 322 200 207 237 531 676 526 488 666 629 752
0 34 24 0 7 137 0 0 35 247 517 789 982 1345 1558 1718 1933 1644 1612 1298 838 760 879 822 1047 555 192 113 58 40 36 10 29 106 210 307 397 515 553 680 560 682 603
2 64 61 29 16 107 0 0 411 663 855 983 979 959 1203 1575 1780 1741 1230 1317 1355 869 839 1072 1026 1026 153 193 336 84 6 40 32 108 517 395 509 391 389 523 668 716 788
81 84 116 142 51 33 81 68 455 306 178 108 411 534 677 1338 1456 1615 1518 1187 1400 1252 919 946 964 1075 1026 51 2 8 140 151 123 346 175 428 662 540 522 457 468 674 840
290 109 184 224 161 18 151 97 410 423 0 77 176 680 1124 1282 1498 1349 1652 1655 1660 1316 1190 1126 907 1132 1040 622 4 0 278 152 440 280 226 261 286 418 439 548 464 501 662
316 169 94 249 374 251 84 57 144 205 117 239 366 309 479 622 843 1241 1385 1739 1499 1140 1392 1424 1486 1210 1458 1088 559 122 0 57 144 347 393 437 431 389 367 351 486 597 634

GFSSE_con_mlcape_075.txt.gz
CAPE
756 583 964 925 1076 1263 1307 1018 1445 2143 2092 2068 1879 2008 1801 1593 1633 1738 1946 1607 1280 1230 1327 1904 2046 1823 2001 1994 2050 2160 2370 2034 2074 2058 2134 2062 1882 1814 1454 1165 1135 1193 1477
554 503 859 1136 1380 1495 1507 1427 1616 2041 2062 2020 1834 1609 1570 1714 1874 1810 1599 1276 1357 1046 1211 1282 1571 1793 1573 1696 1888 2174 2244 2234 2136 1784 1772 1766 1729 1751 1353 1356 1321 1350 1148
418 378 541 1544 1626 1481 1598 1884 1839 1497 1676 1793 1818 1774 1923 1890 2107 1621 1427 2040 1647 888 1019 1249 1367 1281 1338 1452 2036 2018 2144 1760 1626 1539 1201 1295 1382 1587 1875 1679 1565 1483 1487
451 546 673 1544 1687 1867 2097 1735 1941 2139 2134 1939 1862 1862 1938 2070 1807 1192 1932 1919 1384 1058 871 1010 1456 1604 1286 1798 1748 1914 1727 1477 1362 1453 1155 1152 1049 1695 1803 1498 1664 1542 1307
523 738 1020 1506 1694 1902 1743 2009 2100 2166 2081 1885 1691 1608 1685 1901 1246 1776 1514 1803 1637 1702 1030 931 1220 1563 1568 1663 1726 1596 1072 924 1458 1218 1209 1174 894 1626 1657 1296 1194 1306 1177
507 445 1494 1560 1707 1679 1896 1814 1726 1942 1655 1593 1568 1540 1715 1652 1630 1837 1759 1807 1581 1585 1447 1394 1385 1071 1102 1009 1451 1459 600 940 1335 1020 1132 1137 1117 1638 1629 1495 1638 1032 701
226 313 855 1611 1611 1933 1842 1706 1621 1470 1620 1579 1711 1649 1731 1749 1766 1875 1726 1535 1640 1574 1374 1321 1081 1128 1261 1292 1368 1090 715 744 464 1081 1323 1130 1465 1730 1724 1690 1450 536 462
102 135 812 1273 1797 1562 1256 1264 1256 1560 1395 1717 1687 1598 1656 1680 1515 1756 1599 1375 1396 1572 1470 1362 1287 1272 1330 1277 1495 896 755 873 907 1149 1249 988 1561 1721 1696 1640 652 743 839
8 140 604 910 1487 1202 1693 1561 1757 1803 1735 1731 1754 1620 1662 1667 1850 1855 1779 1660 1564 1498 1405 1269 1091 1166 1244 1203 1180 478 558 863 1055 872 1003 1085 1547 1727 1624 1548 848 1410 1419
31 174 482 571 545 521 1307 1483 1647 1720 1675 1772 1711 1670 1584 1509 1489 1607 1269 1617 1491 1495 1346 1222 1064 1229 1217 1233 913 489 598 626 413 1043 846 1224 1715 1692 1630 1539 1524 1253 1420
20 147 405 581 426 477 941 1463 1549 1708 1741 1611 1414 1582 1328 1024 1473 1597 1065 1577 1476 1378 1290 1139 981 1164 1138 910 719 948 1055 290 547 652 640 965 1677 1509 1563 1470 1375 1320 1399
15 81 161 576 534 483 758 1357 1234 1174 1190 1271 1094 1795 1502 1582 1321 964 1040 1457 1398 1328 1130 874 776 868 731 677 944 1176 1415 365 204 584 676 1316 1340 1680 1467 1346 1376 1265 1208
4 41 66 372 212 713 434 1055 469 1173 977 1300 1252 1557 804 823 826 952 977 1063 1118 1299 906 807 775 915 1081 958 1038 1118 639 620 188 661 1168 1580 1506 1044 1278 1277 1341 1372 1213
4 15 25 332 341 772 346 518 591 535 827 784 1040 1268 1121 1466 1191 989 1030 1205 1204 1330 1310 1245 1067 1087 1037 1007 592 680 780 581 530 705 1171 1225 1326 1445 1391 1387 1168 1054 1259
4 7 96 276 535 808 712 550 469 441 427 888 977 1209 1015 1279 1351 1262 1473 1204 1336 1004 1248 1189 969 1145 816 774 916 767 519 301 309 776 714 978 1358 838 635 582 471 601 920
0 2 159 319 581 719 893 688 611 432 1047 461 741 1221 1765 1385 1516 1417 1359 1392 980 955 1045 1250 1227 472 714 861 631 617 709 586 389 721 462 603 970 1117 979 690 635 389 327
0 0 172 296 458 736 978 722 684 972 432 973 1385 1621 1490 1410 1741 1453 1286 1346 1180 1322 1511 1162 1213 1214 801 274 574 418 611 745 416 294 902 823 671 708 1028 982 684 1091 875
0 0 175 88 256 600 682 729 676 636 748 887 1213 1395 1611 1437 1635 1590 1301 1347 1343 1300 964 877 798 292 701 156 435 274 586 620 452 573 222 823 1181 1176 518 453 709 999 916
0 0 87 34 27 427 709 535 774 903 930 810 1070 1156 1506 1694 1332 1668 1330 1359 1561 993 696 533 667 285 610 277 369 301 406 98 218 473 604 653 546 803 1251 407 347 578 804
0 20 58 50 19 362 657 508 675 708 709 872 716 1479 1429 1518 1676 1798 1385 1497 1172 631 542 716 927 329 73 216 75 259 562 598 42 61 310 512 351 302 407 506 1270 711 384
0 44 41 104 195 300 390 211 363 297 577 593 562 1225 1430 1540 1505 1408 1245 1562 1135 756 718 837 728 315 43 37 6 87 32 12 124 89 137 205 212 322 375 469 481 1277 815
0 48 99 165 288 283 158 115 205 350 325 484 566 1051 1388 1404 1776 1305 1456 1065 965 1075 1252 908 1182 385 78 58 54 56 11 2 32 111 64 140 256 485 443 547 449 434 511
0 60 162 253 384 331 23 102 176 425 612 504 998 973 1253 1333 1541 1765 1756 942 1324 1370 1112 1169 1038 1020 504 0 318 291 79 67 131 53 278 321 445 419 392 544 599 765 864
9 52 202 241 439 439 260 0 230 314 218 308 533 401 1054 1113 1264 1592 1377 1632 1678 845 1314 1332 1117 1605 1057 17 0 17 320 294 485 250 221 374 527 483 512 484 574 851 979
111 33 100 400 476 300 327 42 172 379 142 202 122 1025 1080 1274 1214 1056 1447 1492 1651 1428 1456 1478 1623 1694 595 748 4 0 209 164 253 517 549 487 401 452 500 750 548 615 1035
393 92 134 518 631 545 567 229 536 270 270 2 90 695 669 969 1160 1251 1233 1544 1626 1513 1557 1598 1529 1608 1716 1198 512 49 47 160 510 448 424 507 551 458 441 414 516 561 671

GFSSE_con_mlcape_078.txt.gz
CAPE
583 754 806 1243 957 1133 1199 1346 1894 2067 1627 1407 1709 1652 1259 1246 1621 1845 1371 1183 1147 1228 1870 2076 1713 1705 1948 1911 1948 2219 1961 1974 1973 2014 1816 1920 1503 1071 1191 1132 1111 1316 1378
561 704 1105 1184 1251 1155 1134 1385 2059 1908 1735 2059 1789 1482 1443 1784 1939 1468 1496 1408 945 1178 1210 1522 1798 1578 1695 1977 2086 2154 2006 1719 1567 1706 1530 1561 1455 1585 1485 1386 854 1399 1124
478 714 811 1087 1358 1385 1368 1330 1982 1836 1945 1833 1672 1632 1832 1993 1735 1484 1872 1631 819 1100 1170 1242 1403 1255 1449 1935 1982 2199 1885 1427 1157 1372 1378 1176 1727 1753 1578 1358 1572 1344 1292
375 536 845 1316 1594 1567 1821 1980 1841 1663 1625 1583 1741 2095 2076 1861 1221 1849 1895 1348 992 928 1032 1638 1421 1399 1651 1771 1730 1481 1505 1383 1200 1313 1141 972 944 1536 1541 1581 1067 735 1260
424 809 1267 1499 1794 2002 1969 2103 2109 2059 1997 1787 1730 1810 1949 1228 1804 1648 1787 1673 1741 948 938 1388 1584 1483 1533 1623 1073 1119 1230 1201 1294 1232 1135 999 1187 1395 1323 1300 1304 1463 817
685 955 1016 1916 1702 1832 1839 1952 1952 1754 1720 1631 1556 1568 1541 1485 1945 1806 1830 1567 1576 1481 1389 1367 1216 1134 1042 1397 938 491 693 1082 1470 1324 952 1168 1573 1507 1498 1483 666 1178 1242
355 720 1222 1539 1741 1800 1914 1898 1853 1714 1629 1566 1504 1707 1719 1771 1776 1669 1612 1575 1534 1399 1388 1034 1236 1258 1285 1181 629 709 995 1482 1271 1237 1186 1461 1422 1579 1587 833 432 432 834
172 240 910 1556 1858 1697 1227 1201 1235 1575 1595 1615 1678 1654 1649 1580 1693 1563 1306 1348 1488 1439 1372 1255 1315 1312 1241 1029 431 582 867 1164 1140 1295 1252 1377 1393 1611 1392 500 764 632 246
10 481 944 1294 1368 1376 1530 1791 1801 1449 1703 1643 1453 1386 1437 1457 1609 1603 1561 1396 1338 1309 1271 1163 1127 1216 990 722 548 633 859 1150 1145 1180 1188 1428 1715 1596 1391 725 1486 1391 1236
162 497 806 1271 726 1253 1346 1608 1569 1525 1635 1553 1406 1601 1500 1702 1579 1318 1230 1383 1394 1224 1185 1076 1189 1122 610 458 403 520 801 1257 988 1204 1190 1532 1581 1620 1517 1306 1254 1446 1384
6 292 198 488 606 1139 1282 1436 1537 1558 1569 1521 1537 1467 1106 1300 1522 1511 1137 1353 1234 1211 1149 1121 1194 1062 1249 1048 773 676 1115 792 713 947 1051 1593 1436 1519 1434 1365 1401 1318 1184
67 268 176 112 405 827 829 1088 1302 1149 1198 1308 1388 1201 635 877 1358 803 1009 1252 1066 938 984 920 518 385 987 657 928 1145 1516 673 715 817 1207 1043 1547 1477 1371 1284 1306 1285 1039
6 167 255 554 453 525 716 1284 1529 1099 1391 1422 1276 1279 1286 1456 1029 922 970 976 823 764 651 873 139 41 626 858 603 1266 780 631 859 725 1035 1344 1112 1135 1275 1257 1314 1245 1171
15 60 261 350 599 635 972 1342 743 916 1393 619 1064 1334 1040 1169 263 129 901 1343 1164 1041 936 661 532 732 768 598 981 585 548 716 1022 891 785 1136 1253 1146 1197 1352 1042 1101 1090
17 27 439 512 309 167 862 595 721 648 586 985 644 1062 127 855 1167 1149 1286 449 703 871 687 81 848 1043 791 930 936 534 691 727 952 812 639 929 862 949 1214 987 589 826 842
8 43 349 414 843 729 959 698 653 532 890 947 770 1234 965 1010 1667 1330 1371 834 432 174 550 557 105 375 899 947 470 623 457 432 938 669 402 798 701 472 417 264 221 201 113
4 63 238 311 623 566 1101 893 726 131 671 1371 1759 1572 892 483 1067 1660 1471 1337 906 814 540 881 265 744 50 30 804 923 734 375 321 561 618 592 874 880 818 616 818 712 745
6 53 216 95 468 555 1095 596 863 468 1057 743 937 1431 686 484 1805 1606 1419 1294 1346 551 1002 1074 502 661 248 254 259 662 877 504 312 735 1090 747 688 752 948 931 546 823 760
10 48 180 299 375 468 1033 554 855 479 786 1187 891 522 1524 1643 1583 1777 1464 1191 1291 1162 745 1134 127 90 748 526 652 587 452 571 241 518 480 1048 1223 1030 816 358 516 368 615
2 43 264 320 475 564 814 714 959 843 825 681 1265 1185 1545 1862 1524 1483 1788 1124 1538 731 617 872 476 313 104 200 88 160 50 624 337 345 304 341 518 784 1292 571 649 437 460
0 30 314 163 551 543 612 626 751 538 944 708 901 1636 1666 1366 1618 1558 1540 1542 1587 296 545 1250 1179 832 957 89 202 343 384 53 237 407 359 299 143 215 702 1020 1169 1079 688
0 74 114 209 499 342 932 617 667 837 612 808 1197 1342 951 1576 1667 1444 884 1391 1112 1282 1321 818 428 444 704 30 73 316 144 93 65 165 110 220 359 489 258 389 536 629 1088
2 215 51 512 679 410 562 361 464 515 690 457 1471 1231 1535 1328 1770 1637 1482 1149 1384 1527 1123 1332 1226 1174 856 51 164 472 197 285 142 224 189 229 377 363 607 769 740 842 820
39 268 262 599 803 241 457 173 227 462 611 407 349 1452 1311 1563 1681 1604 1728 1562 1728 1103 1107 1192 1254 830 589 814 0 75 375 420 334 505 596 558 379 499 375 453 799 914 1048
133 259 493 415 951 320 225 481 266 496 304 1057 628 703 1468 1391 1661 1468 1269 1716 1840 1518 1290 1359 1648 1378 877 985 1 5 263 421 186 295 332 635 587 701 747 675 708 1137 1118
229 175 523 476 701 519 89 519 427 262 685 470 469 1068 1487 1163 1380 1553 1840 1670 1775 1386 1367 1803 1648 1331 1774 1620 1364 49 66 195 307 451 538 534 580 643 535 870 831 594 1018

GFSSE_con_mlcape_084.txt.gz
CAPE
0 16 773 1021 1174 1124 1263 1622 1450 1370 1439 1541 1445 1598 1868 1498 1346 1288 1544 2077 2053 2058 1963 2112 2148 2177 2275 2277 2228 2185 1942 2042 1718 1626 1406 1230 1277 1414 1255 1274 1178 1184 1097
0 171 1057 1235 1269 1242 1576 1924 1588 1610 1634 1403 1515 2018 1782 1476 1558 1288 1249 1266 2025 1941 1909 2015 2071 2157 2325 2294 1978 1928 1741 1923 1876 1746 1579 1502 1428 1304 1140 947 1411 1298 1138
0 731 1118 1268 1124 1469 1957 1950 1720 1950 1667 1534 1919 2047 1566 1985 1789 946 1124 1392 1138 1575 1676 1600 1777 2009 2171 2297 1771 1515 1281 1323 1803 1763 1622 1390 1431 1321 921 1286 662 651 658
183 836 1073 1037 1188 1704 1899 1902 1905 1801 1659 1684 2001 1923 1674 1744 1753 1103 930 933 1555 1251 1501 1347 1760 1931 2101 1742 1179 1175 1067 957 1626 1453 914 1007 871 967 1467 964 1311 1157 1508
358 656 748 1171 1238 1002 1399 1841 1960 1793 1604 1968 1968 1465 1852 1717 1704 1412 817 1129 1576 1446 1526 1696 1657 1550 1589 1290 943 978 1012 1158 1385 822 908 1114 1251 1394 1489 890 570 1143 1209
325 451 1045 1142 1353 1799 1866 1757 1782 1801 1897 1925 1937 1361 1728 1699 1822 1647 1527 1073 1378 1502 1278 1162 1502 1334 993 985 920 1099 1115 1478 1180 1128 1201 1296 1502 1079 1504 719 1125 694 714
279 894 1604 1726 1980 1988 1936 1949 1697 1707 1748 1828 1560 1752 1881 1732 1608 1579 1490 1439 1270 1295 1362 1178 1149 1166 577 939 1303 1436 1106 1365 1107 981 1177 1469 1166 757 697 1192 1322 1246 684
264 1055 1472 1723 1769 1773 1643 1635 1651 1699 1785 1857 1772 1839 1626 1647 1486 1670 1523 1546 1377 1378 1398 1284 1269 873 511 855 1089 1347 1562 1468 893 887 1165 1303 715 569 453 692 246 72 121
831 941 1241 1430 1715 1675 1570 1645 1639 1705 1775 1927 1864 1804 1712 1547 1424 1370 1509 1480 1411 1390 1363 1243 1022 839 957 923 1168 1489 1560 1100 735 1046 1377 1225 678 828 813 345 698 997 643
657 769 866 1173 962 782 1046 1482 1745 1749 1882 1856 1840 1679 1778 1676 1623 1482 1373 1454 1417 1265 1332 1378 1079 1000 728 970 934 1274 1609 1183 879 1277 1324 1312 870 1556 1636 1429 1316 1034 1077
316 622 680 624 506 1152 1394 1326 1685 1801 1690 1605 1573 1393 1144 1342 1178 1225 1365 1320 1331 1254 1258 1286 1275 993 732 722 1049 1174 1347 1032 950 1141 1210 1193 1451 1209 1391 1376 1156 1036 899
109 320 245 269 468 890 1172 1327 1343 1525 1346 1283 1085 831 552 962 1123 1120 1363 1305 1320 1260 1238 701 720 618 22 372 653 1217 905 805 818 990 1339 1418 1443 1385 1614 1176 1247 889 335
3 162 32 298 533 550 660 874 965 905 786 640 271 0 311 642 870 734 838 1019 1182 1248 921 202 40 137 67 398 855 961 714 654 934 1037 1434 1439 1476 1302 1282 1318 911 742 1027
27 86 116 282 450 411 191 445 565 644 720 705 400 245 706 136 129 188 251 264 512 673 354 0 39 421 576 768 915 919 708 548 572 719 1430 1144 1281 1319 1183 1171 1206 837 725
21 86 115 277 481 306 121 531 684 680 761 801 666 669 263 284 110 296 253 48 441 400 279 293 448 601 783 885 898 671 643 491 352 795 675 749 1147 1256 1078 870 1029 1120 635
0 0 99 247 372 236 433 585 638 735 954 758 429 168 395 259 216 28 317 263 368 62 36 471 465 626 796 827 661 570 597 224 133 237 510 742 817 930 1051 538 511 750 647
0 63 126 189 293 284 616 813 775 659 799 656 320 134 456 602 260 0 143 317 182 0 73 290 378 672 638 602 437 534 585 355 168 72 162 313 498 637 648 329 160 175 168
106 52 106 149 295 502 657 644 553 581 827 597 655 513 142 526 540 447 304 159 219 0 199 359 398 366 190 293 396 463 500 434 400 126 227 260 247 239 367 346 258 317 533
109 115 186 275 253 453 435 338 728 806 848 754 713 414 16 820 1267 822 604 357 409 134 160 443 529 311 96 156 237 388 562 269 201 234 320 220 289 297 355 478 569 453 741
100 106 201 300 129 377 245 375 668 658 769 863 655 640 816 1165 1167 1293 893 809 950 642 752 449 116 301 251 325 306 138 409 267 110 230 315 436 404 423 399 383 483 432 542
52 25 70 32 56 295 175 131 579 404 667 687 461 860 1227 1131 1281 1066 994 828 522 640 778 728 242 235 600 113 10 142 71 59 135 150 360 437 501 517 577 381 342 407 410
0 0 37 17 0 114 107 35 390 393 546 343 660 824 1174 1196 1045 1106 893 500 369 321 633 549 438 334 424 149 162 152 13 0 0 100 124 138 333 573 588 597 495 317 395
0 0 12 14 2 6 103 18 329 596 477 332 684 1082 1223 1351 889 747 967 948 827 628 610 479 468 431 39 80 104 258 18 1 0 34 44 83 94 79 370 669 613 476 508
0 0 63 62 51 43 26 0 317 497 196 557 406 921 1154 1318 868 738 952 989 1024 902 484 723 844 565 162 112 187 2 206 264 76 46 99 44 172 94 281 494 500 557 614
7 22 110 73 106 100 12 0 140 258 169 383 670 776 773 1259 1024 968 771 855 733 866 678 785 1074 916 752 662 171 0 7 182 131 167 281 398 330 314 93 241 301 388 476
0 27 125 86 84 135 44 0 4 96 198 377 583 760 901 863 1031 964 932 870 834 893 761 764 1062 968 1045 1109 1003 186 92 389 264 297 278 383 497 445 457 349 297 294 464

GFSSE_con_mlcape_087.txt.gz
CAPE
0 124 909 1317 1406 1650 1874 1781 1744 1644 1602 1616 1693 1722 1567 1413 1466 1940 2131 2066 2043 1945 2099 2215 2261 2120 2244 2136 1966 2091 2080 1877 1739 1574 1485 1381 1505 1318 1288 1188 1118 951 1112
0 394 1126 1446 1428 1582 1512 1478 1595 1588 1531 1576 2110 1646 1451 1411 1345 1311 1803 2065 2019 1967 2052 2117 2146 2301 2071 2078 2081 2131 2089 1672 1874 1790 1612 1638 1397 965 990 1169 1234 1006 689
0 682 1323 1581 1614 1802 1838 1440 1779 1604 1573 1952 1939 1673 1807 1778 1252 1307 1275 1584 1961 1926 1922 1964 2041 2238 2176 1762 1448 1624 1999 2040 1993 1792 1535 1057 1190 760 930 563 641 865 1015
107 894 1375 1362 1511 1853 2018 1850 1947 1759 1626 1819 1975 1754 1919 1830 1152 1336 1375 1261 1287 1838 1401 1679 1936 2249 1890 1380 1394 1385 1773 1851 1657 1350 905 998 703 1181 1221 944 1003 1142 1053
468 1044 1184 1185 1864 1924 1862 1896 1873 1594 1764 1782 1764 1775 1826 1686 1216 968 1199 1833 1529 1259 1600 1821 1893 1751 1427 1431 1380 1279 1414 1834 1336 1048 888 714 772 1114 873 629 1060 1150 270
616 822 1375 1301 1286 1635 1952 2081 1857 1581 1791 1715 1433 1746 1581 1749 1594 877 1250 1725 1456 1610 1744 1553 1481 1508 1122 1180 1220 1219 1425 1597 1097 1022 1170 1284 1087 1177 568 1443 1041 848 557
447 809 1228 1418 1656 1702 1683 1744 1765 1780 1757 1620 1666 1746 1593 1589 1548 1481 1238 1398 1415 1276 1099 1151 1312 1228 1262 1512 1552 1348 1661 1646 1073 1106 1325 1123 954 1109 788 1296 812 1116 1277
468 823 1458 1776 1631 1975 1851 1804 1759 1737 1820 1436 1834 1711 1518 1631 1484 1385 1457 1347 1435 1443 1310 1311 803 929 1250 1496 1341 1512 1647 1492 1110 1264 1070 654 556 626 1330 1054 287 191 497
607 1162 1493 1552 1687 1698 1692 1736 1799 1793 1888 1951 1569 1604 1575 1410 1630 1537 1564 1423 1374 1348 1259 1162 952 1180 1199 1343 1244 1491 1673 1072 871 1219 1001 563 771 438 453 167 585 483 461
721 990 1167 1570 1548 1481 1673 1745 1709 1798 1989 1862 1766 1753 1543 1482 1328 1511 1530 1553 1437 1327 1283 1136 1037 636 920 1201 1242 1508 1432 1167 984 1295 900 627 993 1458 1320 1544 1495 1401 1096
551 757 792 991 917 830 1295 1642 1760 1938 1891 1819 1558 1695 1378 1429 1353 1244 1365 1517 1395 1354 1388 1250 619 615 981 1051 1487 1885 1526 850 1061 1121 1163 818 1385 1706 1637 1575 1112 899 1068
270 482 600 457 341 1044 1194 1617 1588 1542 1579 1459 1369 1029 919 1111 1211 1262 1444 1468 1380 1426 1412 954 909 161 375 525 1081 1713 974 900 883 1014 1127 1403 1540 1298 1232 841 1370 667 284
128 457 428 185 672 1040 1177 1102 1226 1370 1194 1018 832 515 622 967 1176 1367 1403 1300 1241 1339 348 26 197 5 247 700 863 911 791 724 668 1012 1364 1301 1352 1370 1242 1472 765 432 602
65 155 87 202 376 610 857 791 862 868 867 575 130 117 692 566 492 706 859 824 889 659 161 0 75 286 582 671 916 847 660 667 625 795 1275 1289 1326 1269 1201 1267 1079 1107 850
5 83 0 260 335 377 416 546 667 638 710 503 292 397 620 47 86 272 254 270 452 494 127 58 384 521 736 930 914 790 543 494 305 583 1027 1038 1205 1256 1154 1105 1008 769 639
0 20 46 212 314 343 142 224 448 602 780 758 559 537 423 201 108 280 140 64 432 339 87 464 453 558 745 900 616 509 574 350 151 400 298 599 950 1193 1130 764 825 1060 649
0 81 80 224 331 274 125 348 579 679 840 787 721 464 375 223 181 97 306 242 295 8 12 385 358 602 610 588 331 461 458 170 89 253 273 335 763 901 1191 711 454 531 534
0 41 76 264 294 228 210 478 656 658 736 795 610 55 474 628 207 0 213 249 196 0 168 276 286 260 376 280 329 437 471 221 116 62 91 182 360 418 789 625 347 251 316
0 0 89 211 281 311 382 576 622 755 718 637 548 447 314 525 605 470 318 215 176 33 99 339 423 202 126 250 241 402 461 367 264 201 162 171 174 192 168 290 383 470 561
0 0 64 170 261 361 341 483 580 621 667 639 697 434 24 734 916 839 515 369 378 154 90 296 298 211 268 183 343 158 326 376 193 186 142 261 226 249 261 290 327 435 690
0 0 86 148 201 428 329 421 583 682 745 659 681 588 629 986 899 1022 642 639 832 512 671 373 320 189 437 96 53 27 135 223 261 145 173 266 318 358 407 370 372 345 410
15 0 91 131 128 370 208 297 566 531 585 521 609 701 1122 1006 1029 848 751 580 583 498 662 588 472 417 466 75 78 26 11 0 0 19 46 140 295 361 432 462 458 451 416
26 0 79 97 90 153 167 72 320 344 441 473 583 648 907 1172 993 983 799 410 276 555 427 460 434 324 31 27 16 131 4 0 0 0 29 73 124 103 216 422 458 509 471
38 0 0 41 55 33 49 18 103 464 347 481 472 703 905 1250 992 742 858 830 328 534 561 432 489 249 32 0 166 9 127 158 31 34 20 25 64 113 101 116 384 527 557
40 18 0 0 0 0 0 0 0 300 379 438 386 655 998 1132 1154 638 873 814 909 665 372 575 749 583 430 214 141 4 3 103 42 106 250 312 225 248 156 110 133 304 350
9 39 24 0 0 0 0 0 0 165 370 254 386 451 741 1025 1099 961 802 813 761 757 684 692 940 705 749 928 790 173 52 230 239 172 160 224 340 339 343 305 238 193 194

GFSSE_con_mlcape_093.txt.gz
CAPE
43 396 766 919 1588 1524 1426 1534 1664 1716 1789 1791 1809 1975 2270 2150 1865 1844 1798 1763 1553 2161 2240 2321 2250 2109 2220 2232 2034 1824 1762 1635 1697 1525 1493 1461 1422 1239 1148 929 911 399 903
50 547 885 990 1675 1671 1557 1652 1628 1585 1644 1640 1601 1536 1535 1754 2051 1878 2076 2041 2055 1924 2195 2319 2273 2193 2161 2154 2166 1911 1685 1632 1647 1719 1090 1165 1257 1229 904 537 591 1192 538
102 627 554 921 1627 1677 1756 1662 1531 1441 1980 1757 1504 1497 1430 1386 1552 1856 1772 1872 1851 2062 2158 2155 2005 1913 2012 2185 2148 1965 2009 1854 1383 1365 381 941 513 815 928 1159 1020 445 1074
195 639 822 1235 1547 1687 1821 1639 1480 1637 1963 1803 1855 1846 1326 1395 1507 1474 1814 1716 1718 1928 2028 2150 1833 1775 1865 1894 2170 2078 2021 1865 1606 967 1255 519 196 937 1398 1320 1110 1271 1006
418 783 1146 1356 1669 1683 1756 1713 1547 1825 1635 1685 1682 1659 1249 1229 1366 1293 1369 1647 1546 1854 2050 2007 1900 1740 1699 1414 1679 2036 1621 1454 1181 640 1128 795 581 1403 1390 796 257 456 330
517 813 1370 1723 1731 1681 1792 1792 1526 1889 1730 1495 1419 1430 1571 966 1483 1205 1344 1501 1669 1790 1906 1761 1803 1765 1648 1523 1385 1651 1771 1539 1041 1141 1177 413 347 1371 1347 676 342 330 510
376 875 1309 1727 1787 1700 1597 1793 1617 1714 1683 1446 1276 1433 1459 1124 1395 1361 1555 1484 1534 1700 1648 1678 1688 1763 1520 1636 1664 1793 1665 1459 1305 1095 1235 774 1069 979 682 1487 1115 377 479
401 740 861 1373 1684 1844 1793 1486 1533 1705 1442 1751 1629 1661 1541 1535 1486 1390 1358 1264 1186 1359 1605 1573 1846 1821 1657 1474 1692 2024 1691 1433 1339 1067 703 508 1274 1597 756 1014 1029 300 410
556 745 882 1072 1392 1579 1443 1538 1425 1733 1526 1659 1610 1627 1524 1384 1467 1562 1419 1545 1265 1335 1229 1587 1542 1506 1552 1523 1734 2040 1568 1436 1095 583 91 138 1107 663 198 233 306 556 544
438 670 1207 1421 1434 1287 1452 1545 1394 1597 1620 1615 1587 1564 1568 1602 1592 1437 1115 1371 1270 1219 1428 1398 1450 1552 1572 1795 1847 1571 1580 1226 1049 510 257 165 375 356 1153 1015 982 954 895
517 637 941 1210 1237 1295 1193 1377 1401 1433 1663 1648 1362 1573 1536 1535 1478 1366 1426 1497 1322 1236 1334 1186 1501 1250 1549 1768 1817 1601 1022 979 976 576 366 1003 1421 1540 1591 975 1002 1057 1006
408 758 968 1100 1141 1316 1311 1450 1555 1582 1584 1633 1563 1721 1771 1630 1466 1403 1558 1609 1598 1229 1290 1268 1367 875 1112 1499 2206 1330 1168 900 719 854 537 1005 1668 1628 1574 1057 821 530 532
532 753 890 953 879 1094 1221 1388 1442 1380 1397 1627 1476 1407 1645 1562 1604 1615 1755 1554 1316 1047 1176 596 660 988 1367 1486 1657 1458 1340 767 465 781 1040 1216 1388 1653 1117 1459 827 301 454
287 536 561 707 449 1061 1488 1168 1183 1062 1169 1095 1158 1029 1558 1357 1501 1782 1635 1758 1569 474 536 709 702 1166 1434 1610 1519 1365 1224 665 311 589 823 1090 1186 1213 1049 1283 742 864 963
16 230 404 353 577 849 1181 1092 1088 959 1026 1181 764 788 1196 1139 1220 1505 1534 1393 1293 864 479 823 1074 1335 1544 1646 1588 1464 1155 873 456 330 495 831 1173 1268 1025 1058 1060 996 803
56 178 404 149 712 923 898 981 1066 968 1008 894 655 1000 849 850 835 952 1037 1057 1159 1031 797 1245 1266 1449 1559 1437 1216 1393 1130 854 522 443 444 516 786 1079 1180 1021 904 905 1047
0 198 266 142 469 646 672 769 852 824 931 1090 1103 958 1172 681 676 996 685 575 1006 841 677 1151 1219 1330 1301 1015 1147 1208 1179 1014 501 596 630 472 579 728 925 1059 810 646 661
0 0 155 90 271 509 449 577 703 900 1127 1074 1181 1025 1060 982 876 605 1024 850 845 430 985 1018 1193 1031 1012 922 1090 1115 1082 984 627 637 654 631 758 777 789 779 929 796 620
0 0 20 143 341 373 349 403 667 948 1075 1173 1158 1005 674 951 851 321 837 1013 495 661 941 1081 1106 914 965 880 727 970 1078 1069 1013 674 811 754 811 726 860 656 277 379 580
0 0 27 108 381 483 540 418 708 939 1192 1200 1137 1153 757 946 1029 693 696 908 650 504 776 1116 1005 841 842 746 642 728 770 1024 1084 1044 921 837 766 948 952 1087 1144 1052 699
0 0 51 92 364 484 544 523 729 875 1164 1063 1309 1146 825 580 1153 1186 998 748 713 636 780 1041 898 693 964 732 687 593 700 712 767 897 955 883 910 963 1000 1143 1265 1166 1192
0 0 72 140 396 480 648 847 1093 1191 1189 1251 1298 1196 798 896 1252 1351 984 1034 839 836 1266 920 863 798 1135 601 550 613 311 316 332 328 455 569 740 854 860 1129 1263 1238 1314
90 0 18 119 282 498 681 786 825 914 958 1070 1048 1125 772 756 925 1271 881 1104 1183 1152 1127 1221 1062 930 794 623 445 755 475 436 486 381 543 561 578 683 802 859 925 1055 1215
107 43 123 159 236 420 593 756 744 701 474 918 1033 1100 1139 1151 871 1001 1197 1085 1019 1130 1060 1058 1019 988 542 472 621 428 523 574 615 662 837 854 914 854 1029 1095 983 1006 1092
82 80 119 240 232 292 475 700 863 781 850 837 934 1026 1185 1465 1599 1149 1519 1173 1028 1033 1170 1038 1121 1000 913 758 805 567 444 714 616 821 707 807 1090 1103 1101 1027 1220 1148 1311
96 129 107 177 284 282 362 538 698 787 642 731 761 860 1023 1021 1479 1598 1369 1255 1430 1130 1119 1172 1495 1356 1232 1532 1509 916 730 1147 1056 972 926 864 841 846 923 1214 1503 1810 1978

GFSSE_con_mlcape_096.txt.gz
CAPE
253 301 749 1500 1478 1475 1671 1807 1891 1964 1994 2049 2191 2382 1901 1684 1799 1768 1705 2030 2341 2330 2351 2361 2193 2198 2282 2102 1898 1783 1860 1664 1575 1446 1557 1409 1329 1111 887 986 476 1012 868
224 369 999 1511 1536 1543 1691 1705 1772 1866 1671 1615 1591 1690 1896 2313 2012 1828 1947 2012 2017 2344 2362 2272 2284 2356 2248 2056 1947 1919 1830 1669 1279 1290 1324 1261 1072 822 995 1214 246 678 1129
258 453 797 1636 1883 1607 1691 1640 1454 1976 1775 1507 1467 1424 1277 1506 1875 1911 1832 1825 2150 2217 2221 2008 1997 2116 2261 2054 2123 2017 1678 1625 524 642 591 158 528 1495 978 494 1260 1192 540
274 449 539 1494 1746 1761 1711 1496 1292 2000 1867 1894 1952 1390 1404 1317 1718 1925 1728 1883 2112 2218 2215 1910 1954 2033 2162 2243 2191 2101 2014 1430 1100 1255 223 173 877 1382 1395 1419 1336 578 169
388 647 892 1398 1745 1621 1646 1572 1659 1836 1825 1964 1828 1359 1438 1757 1305 1534 1821 1704 1975 2112 2113 2053 1641 1656 1659 1718 2000 1617 1612 1214 622 424 368 533 846 1379 446 352 332 291 643
455 685 833 1418 1791 1792 1688 1620 1731 1741 1733 1586 1447 1552 1018 1499 1539 1896 1638 1693 1909 1924 1834 1976 1904 1812 1653 1654 1844 1783 1521 1116 976 593 53 612 785 1183 523 354 398 664 939
371 782 1023 1676 1573 1655 1757 1574 1396 1793 1517 1482 1458 1584 1032 1571 1450 1591 1637 1715 1867 1735 1792 1796 1739 1699 1839 1875 1918 1658 1461 1352 523 410 309 985 350 976 1592 1128 340 482 910
387 790 1092 1508 1550 1664 1750 1607 1407 1696 1498 1605 1613 1406 1558 1585 1450 1549 1321 1495 1550 1737 1771 1693 1562 1708 1591 1869 2121 1716 1562 1149 516 285 283 1185 1308 768 1346 1106 286 444 588
404 723 919 1058 1420 1698 1606 1610 1545 1432 1637 1663 1602 1623 1365 1535 1566 1478 1477 1396 1544 1535 1739 1771 1825 1852 1747 1987 2132 1591 1315 1089 413 57 69 612 632 205 254 431 588 532 572
492 790 729 771 1086 1275 1252 1481 1565 1548 1629 1648 1741 1395 1563 1681 1476 1325 1268 1376 1517 1659 1698 1777 1731 1657 1814 1902 1637 1363 858 987 406 165 35 25 374 1289 1338 1162 1146 1180 803
534 523 642 1142 1198 1085 1190 1355 1576 1603 1669 1250 1523 1388 1201 1323 1106 1219 1393 1337 1428 1559 1432 1679 1541 1597 1649 1945 1725 1082 1129 471 413 265 843 1308 1504 1596 1351 821 884 1307 551
332 260 694 649 915 1046 1057 1276 1287 1175 1316 1311 1425 1428 1314 1319 1421 1047 1426 1488 1388 1368 1403 1304 931 1041 1593 1189 1280 1082 306 369 370 355 462 1432 1640 1551 1285 1130 610 231 145
161 256 481 884 935 1077 1159 1193 1139 1036 1021 1336 1350 1105 1154 1052 1157 1249 1293 754 834 1479 971 1080 1208 1348 1559 1240 925 419 408 168 279 427 659 1248 1522 1487 1080 1419 513 456 584
156 278 519 560 949 975 1109 818 741 983 934 937 1221 1291 1032 1055 1153 936 758 862 564 763 1216 1156 1199 1715 1799 1815 1063 558 248 57 49 229 354 927 947 1177 1045 1291 928 899 897
216 239 346 393 428 1262 1033 684 753 910 1066 1108 1107 1364 1033 785 1010 950 1076 919 805 766 1053 1123 1467 1677 1662 1416 1294 1020 648 433 252 309 475 273 786 1104 964 1052 922 940 892
18 158 270 163 463 813 967 915 881 961 1262 1091 1013 1323 1362 896 889 984 1054 1059 1059 948 1077 1342 1777 1664 1567 1184 1114 1212 1074 732 714 785 631 875 200 571 865 926 858 776 787
0 137 224 122 629 796 963 1009 1062 1119 1080 1129 1313 1418 1451 1149 1226 986 987 980 1041 1123 1407 1561 1706 1677 1060 951 1052 1051 1058 1111 875 999 973 859 974 739 435 697 936 687 635
0 137 176 97 480 759 767 810 852 1105 1288 1244 1215 1075 1539 1713 1578 1445 1305 998 1180 947 1281 1247 1252 1215 724 474 632 593 810 881 972 1108 1085 1037 999 880 998 793 700 886 815
0 96 125 160 235 597 947 1000 1089 1248 1068 963 1319 1275 1508 1712 1531 999 1212 1388 1123 1107 1149 1127 1179 1186 694 562 503 672 833 845 928 750 1036 1182 1160 1166 1108 1122 776 605 649
0 8 118 226 397 677 844 929 982 1187 1201 1184 1051 1503 1473 1588 1652 1019 1134 1351 940 1002 1050 1200 1292 889 707 768 417 529 661 807 888 875 876 921 958 1150 1192 1416 1603 1361 1118
0 21 84 287 759 797 773 679 962 1100 1286 1160 1156 1318 1622 1310 1403 1615 1046 1270 1051 868 1126 1547 1136 1055 644 863 526 316 358 566 590 551 643 709 891 1059 1130 1374 1705 1405 1526
0 56 170 394 1011 1094 1048 1173 1085 1059 1194 1142 1379 1675 1279 1208 1233 1002 1234 914 911 991 1720 1480 1358 478 590 837 455 309 193 182 244 269 403 533 707 753 796 1122 1541 1844 1891
82 52 238 416 939 1193 1086 1442 1749 1447 1324 1234 1266 1118 1178 1236 1100 1065 1054 1129 1206 1206 843 1480 1463 1549 473 739 1234 908 439 356 382 250 597 588 1054 711 932 1231 1416 1590 1921
286 140 143 607 905 1172 1428 1233 1211 636 683 909 1241 1222 983 973 1271 1006 1013 1132 1178 1216 1185 1396 1339 1235 1034 523 856 615 1061 1126 763 537 573 800 1034 1121 1624 1307 1338 1527 2015
401 332 285 537 805 849 1256 1285 1154 915 351 558 1179 1601 1314 1093 1165 1148 1076 1110 1441 1365 1438 1532 1860 1752 734 742 594 708 1072 1159 1485 992 675 679 886 982 1054 1367 1654 1778 2104
371 428 372 599 946 1067 1135 1428 1452 1018 888 954 973 1194 1316 1149 1062 1302 1715 1716 2065 1572 1817 1714 2043 2069 1751 1432 913 789 974 1127 1047 1030 946 837 937 843 1014 1357 1652 1945 2083

GFSSE_con_mlcape_102.txt.gz
CAPE
651 714 1223 1200 1368 1593 1720 1726 1930 2094 2152 2034 1806 1741 1758 1713 1503 1907 2008 2002 2018 2035 2010 1979 1720 1689 1770 1661 1721 1561 1558 1405 1392 1174 1146 1079 696 742 718 610 460 1029 1050
493 835 1532 1596 1641 1734 1766 1761 1745 1723 1820 1995 2299 2287 2099 1892 2082 2096 2036 1978 2025 2002 2086 2002 1864 1861 1871 1837 1598 1445 1284 1306 1084 998 1141 871 805 569 1003 767 1103 1112 598
509 888 970 1351 1506 1430 1468 1364 1363 1376 1371 1326 1519 1945 2048 1915 1946 2111 2121 2116 1839 1953 1997 2138 2093 1973 2000 1426 1415 1050 984 1314 927 680 310 306 1107 1120 203 565 1235 1202 1078
191 476 695 1206 1453 1433 1394 1943 1585 1735 1617 1394 1285 1290 1936 1779 1896 2101 2157 2218 1996 2008 1966 2003 2117 2107 2001 1413 1022 1052 993 902 620 565 444 207 575 683 686 980 1140 1123 1164
222 776 1419 1527 1570 1383 1686 1677 1712 1735 1745 1336 1790 1896 1411 1942 1829 1981 2057 2110 2128 2013 1877 1777 1922 1643 1428 743 819 891 846 861 489 714 179 24 366 759 694 672 1203 882 489
772 996 1701 1783 1592 1476 1683 1450 1609 1685 1469 1300 1216 1293 1712 1540 1759 1842 1954 1961 2024 2080 1946 1849 1793 1831 1469 1068 1098 1021 1020 1185 356 483 696 720 554 227 434 1091 1294 1216 373
571 949 1310 1591 1728 1503 1563 1588 1610 1576 1390 1375 1533 1570 1597 1646 1642 1786 1961 1823 1933 1917 1803 2006 1924 1993 1742 1021 1057 983 1249 1297 283 94 476 1186 1196 345 367 527 947 1201 330
309 765 1117 1561 1670 1417 1371 1617 1533 1550 1635 1616 1614 1692 1593 1736 1710 1829 1799 1839 1859 1972 2080 1984 2020 2113 1738 870 834 901 812 956 909 909 267 290 782 361 448 564 661 968 1179
526 742 991 1174 1423 1551 1432 1686 1628 1693 1679 1604 1675 1582 1580 1647 1418 1535 1779 1831 1858 1996 2006 1925 1950 1894 908 524 702 591 613 698 479 515 17 433 669 817 911 626 633 776 985
301 512 806 1030 1177 1027 1419 1546 1655 1669 1589 1610 1381 1700 1398 1470 1459 1535 1702 1926 1915 1897 1738 1657 1619 929 169 378 453 568 650 707 74 204 553 1212 1422 963 1147 1547 887 122 930
387 404 581 1005 1229 1150 1233 1435 1538 1682 1555 1227 1018 1019 1165 1301 1347 1519 1672 1829 1771 1740 1708 1670 1432 1196 882 606 476 606 910 1026 694 831 960 1444 1482 805 682 1140 1002 176 443
305 556 832 864 1011 1217 724 1312 1256 1267 1345 1218 1172 923 912 1202 633 1107 1563 1584 1339 1270 1244 1504 1756 1345 1626 1121 785 767 1134 433 859 1163 1231 1342 1110 1063 1055 509 245 363 247
377 677 560 955 909 1120 846 970 1139 1301 1261 1319 917 1165 1302 766 383 657 1066 1061 1073 1138 1268 1263 1526 1908 2043 1793 1450 582 105 252 184 224 690 1479 1076 1177 1261 585 536 766 591
446 704 1040 1087 1372 1042 3 509 1070 1117 1220 1177 1041 1341 687 1051 1117 1163 1298 1366 1389 1612 1081 1209 465 510 798 335 226 62 43 165 103 43 258 443 764 663 1160 811 909 656 568
390 697 953 1068 864 857 267 516 493 786 840 484 872 849 1266 505 1089 975 621 853 1025 1407 1370 1499 1015 1822 1174 542 752 432 315 485 369 144 71 66 77 102 221 448 495 602 828
228 105 636 1151 870 1073 905 486 41 193 692 865 984 1082 1220 872 693 769 1069 674 1296 1600 1404 1085 610 956 603 887 795 761 802 670 1059 528 168 169 131 113 143 266 374 399 397
38 173 155 432 1009 1061 875 1012 660 449 720 1012 813 1365 1300 976 1334 709 914 1215 1153 1289 955 1704 1807 1756 827 763 592 967 730 935 903 943 931 646 477 405 470 438 447 455 488
59 164 119 87 510 913 973 1030 517 16 0 465 1137 1101 1569 1230 1327 1208 1078 1207 1062 1040 952 1280 1300 870 1451 676 697 773 730 725 920 1054 858 1282 1187 1131 861 914 704 652 673
57 182 65 311 321 828 772 1058 1214 628 524 1095 1204 1261 1253 1440 1394 1713 1359 1274 900 1432 1397 1008 414 694 1204 601 492 453 399 838 872 1006 900 973 852 1472 1582 1166 1151 1211 1072
86 169 146 369 449 1008 685 1275 1091 1221 1031 1219 635 1207 1286 1513 1353 1155 1366 1240 1357 1353 1040 594 1266 1218 910 494 762 420 761 856 599 851 828 1136 797 1057 1688 1640 1687 1733 1368
79 152 209 796 586 1032 913 682 900 1086 1323 1012 1095 1194 1202 1481 1253 1004 1220 912 1786 815 1367 1333 849 782 1059 751 1200 697 461 350 608 813 832 913 700 1184 953 1368 1812 1955 1695
0 155 214 926 585 1198 554 1038 1148 513 1185 1109 1360 1421 1439 1341 1328 1459 1195 829 1436 1460 1536 1513 1709 1357 845 571 1023 1498 587 697 515 448 457 634 534 871 1116 1403 1718 2001 2215
0 124 265 1023 615 1129 760 1142 257 349 1201 1161 991 1379 1387 1304 1245 1371 1623 1447 1008 1667 1295 1429 1538 1087 1004 294 560 1373 1199 1023 359 368 482 523 915 1234 1464 1434 1790 2095 2309
0 38 375 1237 790 963 891 995 1125 836 665 1129 1183 1209 1246 1049 1315 1430 1260 1769 1411 1482 1169 1550 1305 1482 1534 1252 514 673 1201 1437 1769 867 709 738 1129 1342 1350 1942 2090 2312 2544
0 54 367 1033 1115 1124 1081 687 667 361 0 590 413 1154 1115 1166 1021 1250 1536 1455 1374 816 939 1550 1299 1741 1932 1609 1534 679 793 1135 1215 1327 1049 1231 1456 1646 1733 1546 1882 2220 2726
0 0 377 809 1244 1010 1332 1157 817 620 319 626 588 760 1205 983 1371 1196 1276 1568 1662 1049 1457 1678 1494 1643 1919 1697 1541 1681 1396 1288 1440 1021 1286 1232 1013 1041 1102 1581 1530 1697 2342

GFSSE_con_mlcape_105.txt.gz
CAPE
338 963 1159 1218 1486 1686 1516 1564 1284 1412 1705 1609 1678 1853 1856 1914 1954 1848 2034 2063 2092 1931 1905 1857 1826 1722 1727 1581 1584 1368 1384 1050 1265 1003 851 862 623 585 953 1049 694 380 1046
527 1034 1413 1594 1842 1824 1853 1790 1752 1910 2098 2229 2126 1770 2080 1966 1829 1859 1935 2084 2095 2027 2042 1926 1903 1853 1538 1482 1314 1359 1279 1380 1134 1034 993 595 859 899 1160 1151 757 429 1119
805 1328 1573 1553 1475 1579 1304 1297 1251 1220 1388 1807 2125 2024 1928 1942 2016 2073 1703 1907 1977 2156 2137 2002 2001 1422 1575 1387 1152 527 708 813 564 759 690 737 125 775 1192 1150 1101 494 547
649 844 1258 1345 1336 1352 1868 1334 1528 1345 1251 1213 1740 1801 1738 1998 2060 2049 1997 2041 2102 2056 2103 2145 2014 1699 1352 1345 747 535 686 482 609 583 414 266 354 1070 1396 1285 1243 1364 1126
466 653 1201 1186 1187 1791 1606 1740 1712 1765 1227 1638 1355 1639 1836 1718 2105 1952 2227 2083 2051 1832 1914 1782 1396 1129 996 1070 912 864 697 757 432 66 182 407 627 847 1310 1158 460 903 1334
535 997 1379 1310 1366 1734 1607 1716 1611 1611 1164 1318 1295 1326 1506 1739 1824 1923 1971 2189 2012 1932 1816 1806 1512 1167 1064 1124 934 774 696 698 286 290 184 154 277 644 1316 1370 442 602 1302
908 1283 1422 1455 1338 1646 1578 1543 1573 1430 1094 1720 1494 1566 1636 1621 1809 1952 1724 1948 1862 1856 1895 1882 1453 946 952 834 789 1088 772 354 562 800 791 336 325 486 681 1256 1064 427 677
611 1061 1258 1438 1430 1513 1581 1418 1349 1354 1247 1640 1603 1547 1634 1703 1843 1707 1723 1817 2021 2000 1932 1913 1274 665 645 577 818 784 1000 645 77 323 734 315 489 486 594 699 933 1072 477
755 890 1219 1373 1328 1408 1523 1501 1529 1402 1533 1589 1514 1559 1534 1595 1687 1718 1779 1838 2053 1894 1676 1334 1011 573 421 546 391 542 1238 665 0 0 55 465 833 937 684 590 744 1018 1093
641 593 863 1030 1078 1349 1415 1554 1547 1509 1524 1474 1397 1528 1499 1331 1574 1737 1869 1910 1878 1868 1909 1962 1374 747 539 280 147 375 881 68 102 395 827 1024 840 1042 1593 898 124 889 815
664 777 782 993 873 1089 1170 1491 1514 1553 1352 1201 1269 882 1283 1109 1371 1518 1691 1796 1879 1810 1615 1497 923 547 674 663 644 597 979 320 271 551 890 1254 609 607 988 1169 149 272 696
474 682 834 948 915 906 1080 877 975 1059 796 733 691 829 1043 1063 1087 1079 1507 1491 1485 1546 1485 1100 730 892 1233 816 514 1102 1038 806 559 707 1315 1305 788 920 506 163 245 286 234
447 661 729 595 874 732 806 873 903 969 917 840 733 691 914 807 950 974 1080 1174 1006 1223 1227 1440 1490 1487 1470 1546 1434 1175 603 555 158 72 304 324 768 1283 809 376 526 563 385
461 338 661 792 385 111 81 549 736 946 842 817 778 1053 252 434 540 674 959 1023 1211 1267 655 1115 516 963 861 937 723 48 88 60 0 0 314 491 294 1221 842 590 554 486 339
387 548 710 263 272 1 0 250 461 507 760 652 861 679 831 968 606 798 1099 989 950 695 781 603 936 638 566 592 198 129 144 84 0 0 0 59 133 237 233 177 357 403 602
494 662 693 129 20 0 0 99 14 380 479 653 624 902 1048 801 861 830 844 1057 1205 1289 1316 443 580 893 776 354 385 435 390 516 288 51 11 69 93 100 131 257 304 331 390
555 469 732 313 92 8 3 33 11 378 526 753 1030 1338 609 621 723 766 1094 1281 1313 750 753 844 1105 1630 1286 736 526 441 540 504 651 331 225 152 267 313 274 449 387 363 406
137 286 409 669 358 320 329 82 0 42 297 232 932 1025 1030 1090 902 937 1140 865 535 946 753 1120 734 347 1113 891 528 558 657 651 490 800 721 610 494 517 608 818 851 709 746
119 97 112 587 318 651 414 126 0 4 15 346 1019 1111 1132 1004 1405 1100 1227 1011 1034 1219 1068 693 746 725 745 348 469 565 625 519 756 838 608 944 779 960 853 987 1191 1320 1229
100 0 219 282 564 505 799 350 177 211 431 732 937 976 1069 1253 1281 928 1595 854 1409 758 689 543 802 1044 804 383 812 330 324 701 659 839 686 851 865 1234 1238 1253 1355 1616 1615
72 0 457 301 655 338 623 739 782 676 868 542 244 970 1166 1247 821 690 965 938 1122 869 839 628 1047 1344 918 801 808 584 271 268 494 727 739 817 759 1179 1310 1334 1644 1805 1793
73 43 424 466 509 254 797 958 987 751 1064 826 883 962 1139 1192 1012 833 985 845 1376 979 1050 1272 1285 1275 1105 227 861 1449 384 291 425 547 378 802 562 925 1165 1344 1515 1816 1929
66 149 503 407 466 415 680 676 364 410 927 948 992 1124 1108 1127 1268 1416 1341 1019 1214 1283 987 1072 1173 1042 747 597 590 1093 906 600 243 98 203 454 563 1120 913 1234 1599 1812 2089
60 190 435 480 252 751 1281 548 69 372 584 721 832 1016 1077 921 1326 1074 1588 1292 1347 1107 1092 1086 1771 1592 1259 1408 983 592 814 1242 960 373 622 337 691 903 1354 1394 1640 2018 2240
35 167 390 662 371 538 991 1013 590 387 138 455 799 1018 1058 1080 1449 951 1290 1284 1159 712 775 982 1629 1024 1547 1535 1664 1420 1224 1233 1071 1057 1288 1075 915 1251 1383 1676 1876 2173 2833
62 194 409 660 569 777 823 764 647 11 0 330 628 1050 995 943 988 1294 1142 1131 659 1047 739 1481 1464 1220 1216 1536 1883 1675 1309 968 187 35 1368 1316 1170 1253 1459 1413 1158 1900 2462

GFSSE_con_mlcape_108.txt.gz
CAPE
443 944 1103 1302 1613 1541 1715 1632 1465 1793 1837 1850 1625 1497 1388 2209 2248 1993 1885 1844 1630 1807 1926 1761 1641 1459 1436 1110 1273 1188 1256 1147 971 975 721 463 1037 1085 830 492 857 1182 1218
705 1136 1420 1808 1687 1826 1948 1706 1758 1970 1724 1482 1743 1682 2211 2095 2092 2082 2024 1958 1581 2012 1878 1639 1434 1401 1213 1467 1265 920 1283 1297 1295 1019 1141 1082 1086 1056 643 376 1141 1215 1255
669 1287 1631 1786 1950 1897 1728 1641 1798 2067 1939 1815 2180 2191 2263 2065 2035 2148 2084 1962 2002 1998 1631 1582 1575 1520 1325 1225 1008 760 1077 1308 900 832 250 513 1143 1136 1178 496 554 832 1154
1023 1447 1547 1566 1491 1518 1404 1303 1260 1336 1799 1924 1770 1994 2360 2172 2076 2102 2119 2117 2090 2082 1958 1602 1534 1340 1059 893 852 848 1125 1327 1185 547 217 525 1118 1219 1207 1231 1005 657 1065
923 1065 1250 1315 1748 1724 1677 1870 1547 1273 1182 1714 1944 1885 1870 1893 2116 2089 2038 1977 1858 1992 1600 1562 1504 1389 1044 850 1035 883 780 787 326 237 291 446 796 1245 746 405 995 845 440
518 1102 1302 1364 1662 1619 1791 1770 1643 1548 1905 1448 1815 1807 2042 1976 2175 2196 2151 2038 2000 1942 1649 1332 1299 1370 1439 1343 759 877 952 414 230 129 187 412 876 1256 988 240 1004 1002 449
689 1157 1097 1556 1581 1685 1599 1627 1579 1074 1376 1524 1515 1635 1896 1856 2048 2031 2042 2026 2065 1960 1775 1477 1313 1184 1007 1101 714 796 796 534 164 46 44 241 515 1015 1035 374 693 462 286
706 1151 1348 1250 1584 1691 1525 1545 1485 1337 1885 1683 1656 1866 1761 1988 1921 1931 2007 2092 2161 1921 1853 1373 1077 683 680 1276 1198 910 1112 885 635 262 32 212 510 592 806 1124 847 407 355
942 1098 1278 1344 1483 1461 1542 1481 1476 1501 1666 1564 1588 1741 1970 1945 1905 1959 2120 2237 2116 2055 1913 1387 779 649 851 919 1237 1620 483 190 65 0 135 434 568 506 521 790 1091 1067 574
811 904 1023 1112 1342 1205 1510 1533 1523 1649 1610 1545 1582 1754 1703 1985 1834 2003 2182 2209 1962 1888 1674 1137 750 758 750 609 979 1562 352 42 6 128 253 561 1241 1544 916 165 1054 838 854
500 662 877 664 1188 1093 1306 1471 1506 1562 1432 1139 1594 1474 1524 1494 1785 1766 1988 1998 1840 1733 1417 1066 685 532 466 740 777 1121 355 188 402 657 768 648 461 1211 1328 274 152 572 677
401 610 567 541 794 976 1336 1187 1145 1217 810 771 992 1209 1078 1315 1356 1628 1851 1925 1833 1595 1065 758 644 717 911 604 372 1365 246 280 370 724 908 444 614 500 291 73 107 91 332
511 639 709 673 689 773 831 731 748 630 585 684 774 908 1016 1029 1288 1101 1417 1484 1369 1439 1345 1381 1200 1138 1227 1427 1250 951 601 477 447 804 785 539 926 888 310 144 313 347 278
495 650 692 645 558 360 555 585 759 696 738 774 740 756 805 810 716 654 686 806 916 1165 779 1046 767 977 739 538 791 1048 636 82 91 110 263 301 802 1154 514 342 361 533 317
436 575 507 484 272 100 256 472 537 771 735 720 829 635 421 391 401 684 879 973 746 629 461 748 781 629 396 129 135 261 117 0 0 47 287 422 155 670 760 514 549 472 472
364 440 455 267 45 0 29 232 275 402 615 590 678 602 582 863 437 703 857 872 780 1181 885 409 868 1036 451 220 150 117 99 96 36 18 38 136 135 191 342 341 426 466 516
394 297 229 191 20 0 9 220 176 538 485 718 918 846 774 758 804 853 789 849 1024 711 427 620 1255 654 730 486 299 209 251 302 217 130 75 102 202 273 263 363 507 503 541
462 235 344 139 0 0 41 81 65 321 414 588 819 766 663 638 564 1220 1013 1005 940 709 890 1131 341 507 872 717 437 300 407 482 375 309 227 233 318 501 414 694 871 840 891
298 460 370 335 330 210 281 17 0 190 211 424 959 909 1085 1210 1113 1005 1077 837 1032 1064 867 656 827 848 561 485 336 409 466 486 399 659 673 655 536 573 628 659 1051 1362 1498
348 320 396 416 445 357 420 44 0 99 102 584 807 931 1031 1076 890 925 1200 853 1030 743 707 565 700 1161 908 522 539 363 503 468 393 651 659 667 801 774 904 953 987 1375 1633
91 174 479 314 531 452 473 222 134 79 476 622 699 893 1120 1089 875 801 1201 702 1003 885 576 1093 1134 1002 671 651 620 422 215 216 457 478 657 579 708 842 1066 1146 1227 1295 1575
67 213 260 297 495 484 776 590 633 672 711 600 576 978 972 1080 660 616 842 569 973 829 958 1031 1178 855 663 235 938 760 210 156 246 286 434 477 603 641 1066 1152 1323 1564 1772
112 290 287 374 298 336 864 697 558 587 816 805 707 892 1040 1043 946 884 947 836 1113 951 870 1008 1320 1316 969 981 827 932 502 274 263 65 89 303 327 574 814 973 1166 1487 1606
125 323 374 373 344 414 604 671 440 590 661 679 624 797 992 1023 1129 1244 1043 906 1233 1116 905 1140 1577 1360 1304 1246 1184 1025 798 1185 476 326 366 338 390 854 856 827 1153 1382 1784
167 281 379 402 392 662 1068 622 360 509 536 736 858 983 989 942 1098 994 1153 1254 974 789 785 1210 1441 1175 1421 1596 1523 1367 987 645 823 1016 815 947 747 851 1176 1355 1291 1627 2048
214 305 322 305 336 637 872 883 182 290 445 643 754 857 923 977 1102 974 1125 1043 917 744 571 1423 1333 1071 1072 1580 1558 1323 885 674 101 917 1072 1134 1242 1144 1141 1239 1006 1824 2378

GFSSE_con_mlcape_111.txt.gz
CAPE
251 602 1006 1635 1633 1779 1820 1933 1673 1648 1210 967 1407 1590 1999 1482 1876 1754 1438 1685 1699 1558 1333 1161 1554 861 1249 1268 1305 1202 987 984 902 601 774 1212 1136 701 688 1225 1049 1023 1042
472 929 1237 1685 1706 1805 1701 1744 1750 1569 1521 1200 1331 2075 2201 2225 2186 2135 1871 1892 2043 1857 1605 1633 1391 1198 783 834 1217 1317 1377 1229 1220 1133 1068 1124 606 390 844 1164 1089 1060 989
865 1181 1494 1631 1831 1799 1848 1993 1880 1836 1701 1457 1333 2167 2120 2203 2228 2147 2124 2010 1937 1651 1603 1471 1404 1221 1161 1036 1087 1482 1205 1156 906 726 959 923 1049 520 484 655 1107 1137 1111
1063 1475 1596 1699 1811 1603 1577 1767 1892 1975 1989 1755 2085 2163 2136 2190 2293 2202 2232 2244 1942 1628 1735 1535 1255 1142 1207 1037 832 1024 1124 1163 312 441 582 982 1031 1212 1071 824 756 1198 1236
1226 1414 1621 1290 1461 1249 1207 1264 1317 1741 1942 1850 2032 1968 2096 2158 2277 2282 2217 2333 2222 1809 1590 1452 1115 946 972 1035 1097 1431 1099 709 459 318 503 860 985 674 885 1126 623 530 609
998 1023 1347 1793 1717 1694 1652 1521 1259 1169 1602 1991 1697 1826 2273 2264 2151 2154 1883 2122 1751 1665 1688 1593 1520 1204 1136 1412 1176 1132 1149 595 260 226 523 1004 1147 407 515 1289 683 606 611
611 1027 1403 1665 1509 1727 1530 1510 1723 1674 1453 1805 1866 1812 2122 2292 2325 2299 1760 1850 2020 1649 1560 1641 1627 1649 1406 973 1166 1201 882 254 0 72 225 634 1248 688 406 1054 449 349 1097
713 767 1417 1364 1496 1604 1374 1588 1253 1683 1584 1671 1759 1806 2121 2205 2170 2166 2144 2276 2069 1820 1724 1491 1092 1339 1292 629 1098 1206 913 281 0 0 60 242 773 1116 1153 600 402 332 558
884 868 1242 1339 1513 1483 1458 1464 1690 1896 1751 1545 1521 1871 2023 1994 2107 2207 2317 2303 2029 1877 1719 1268 910 1134 1478 1060 1266 1422 1314 874 5 0 71 255 555 656 823 1201 1087 584 618
968 901 1058 1215 1238 1411 1501 1500 1688 1832 1739 1611 1830 1914 2066 1966 2148 2378 2320 2185 2033 1828 1519 1258 1106 1102 991 1244 1513 927 371 361 0 62 277 589 948 934 340 402 1593 893 495
980 934 960 1115 1030 1308 1392 1539 1671 1611 1621 1712 1636 1805 1938 1738 1965 1991 2234 2105 2003 1802 1466 1190 920 945 938 1044 1498 1056 398 3 53 184 234 805 1185 1756 681 177 375 1069 851
545 774 716 907 869 1197 1438 1372 1370 1360 1137 1386 1395 1361 1330 1499 1526 1813 1985 1981 1777 1456 1074 770 657 791 822 468 555 1448 392 189 398 594 648 472 536 978 1010 155 112 134 410
363 675 513 640 787 977 1041 919 819 759 723 881 1001 972 1137 1229 1402 1449 1381 1334 1307 1473 1227 1279 1027 934 1051 1191 1215 948 277 366 338 697 816 519 778 610 348 213 259 268 208
455 489 503 481 527 691 727 624 598 574 610 691 811 827 858 827 988 993 1078 1001 955 1042 828 948 630 598 625 850 1045 1034 447 502 207 486 627 721 1041 1278 687 341 400 579 586
471 601 549 523 416 280 328 572 641 740 790 725 736 781 719 615 486 637 709 848 850 591 513 755 755 742 131 45 366 827 470 112 51 66 114 418 465 987 797 701 654 735 608
480 549 515 440 204 240 344 465 475 645 697 741 590 523 413 416 314 548 842 865 687 939 606 500 1021 782 178 127 190 445 237 43 25 58 93 290 448 255 493 727 575 605 769
459 476 461 336 8 11 134 310 260 533 611 600 716 657 362 711 610 500 692 800 797 580 426 881 854 344 580 269 186 191 94 85 74 66 47 83 126 359 401 464 634 735 827
384 369 340 231 0 0 34 259 231 405 470 650 849 779 843 748 772 937 788 804 966 741 862 767 405 520 647 658 348 236 233 337 326 172 142 133 179 303 405 696 909 1047 1265
316 234 256 148 15 0 52 76 34 269 361 498 715 755 753 676 933 1039 993 886 820 991 752 660 744 850 542 400 458 412 348 458 343 427 454 437 466 462 501 602 775 1118 1513
315 211 181 66 0 72 64 0 0 164 196 424 737 710 843 1185 924 1169 946 995 930 712 671 569 929 1008 765 545 442 604 413 466 496 451 566 677 696 725 722 797 931 1021 1297
232 224 231 281 246 227 232 0 12 206 158 501 631 714 933 1015 798 1085 923 784 923 906 655 1075 1149 809 589 414 599 458 333 235 244 360 461 565 637 718 874 946 1018 1186 1384
238 202 168 295 267 250 383 130 94 89 269 491 529 795 879 915 736 650 864 510 798 820 891 939 1164 913 844 487 968 497 243 171 157 236 254 431 513 557 669 875 1152 1284 1462
226 273 275 224 315 368 616 412 424 504 570 581 483 700 855 992 633 551 767 674 1092 873 782 1011 1268 1124 1148 1053 744 870 412 259 293 62 158 266 382 372 666 843 1015 1064 1352
121 194 260 226 360 357 651 464 458 408 385 577 368 725 807 942 927 853 1055 820 1208 1093 776 1083 1459 1312 1381 1218 1197 938 807 996 441 354 310 493 559 667 804 961 989 934 1264
77 181 246 235 265 356 517 494 438 386 372 481 558 677 864 868 832 1077 886 827 912 768 868 1214 1094 1253 1453 1497 1224 1131 837 478 568 892 757 986 983 854 868 1124 1347 1518 1916
131 225 240 253 288 344 502 438 383 378 418 462 609 689 770 830 825 769 972 1078 949 646 645 1213 1157 975 1136 1280 1341 1235 1039 932 169 882 898 1057 1207 1158 1058 1211 1067 2003 2276

GFSSE_con_mlcape_117.txt.gz
CAPE
491 874 1163 1339 1584 1484 1562 1528 1286 1483 1378 1542 1438 1886 1976 1554 1473 1687 1621 1417 1279 1314 1253 1496 1492 1279 1150 873 432 498 549 1111 1092 816 742 1151 1217 1356 1261 1197 1077 1121 1315
512 946 1144 1200 1707 1843 1697 1710 1480 1359 1655 1794 2008 2067 2106 1580 1459 1566 1600 1442 1390 1396 1347 1298 1455 1396 1340 1325 1240 1220 1290 1164 1315 659 276 1175 1412 1421 1428 1344 1403 1356 1333
592 1093 1250 1315 1596 1790 1702 1645 1596 1489 1869 2265 2128 2181 2236 1967 1893 1588 1525 1849 1468 1659 1432 1329 1364 1519 1554 1280 1254 1201 976 1406 1380 1362 575 268 506 1368 1548 1432 1186 1219 1113
723 1180 1316 1259 1696 1744 1716 1723 1624 1682 2162 2134 1939 1910 2072 2004 2003 1702 1726 1727 1661 1582 1448 1357 1139 1280 1172 1237 1464 638 600 1160 1217 1098 934 858 994 888 1077 1437 1376 1364 894
877 1144 1456 1682 1778 1781 1738 1902 1987 1966 2137 2153 2231 1834 1864 2058 1981 1777 1927 1897 1749 1653 1533 1428 1430 1358 1475 1685 1152 798 649 956 1036 1026 764 265 1037 1351 560 535 540 1285 1312
969 1171 1698 1548 1406 1375 1517 1889 1987 1853 2052 2124 2185 1780 1401 2138 1961 1858 1892 1790 1689 1377 1125 1459 1489 1456 1400 1537 1298 1226 674 521 765 1148 1042 158 483 1427 795 738 1390 529 718
1001 925 1199 1194 1489 1338 1285 1228 1639 1959 1892 2056 2091 1900 1773 1687 2027 1903 1759 1864 1706 1621 1608 1578 1562 1433 1566 1750 1831 1356 691 295 476 939 1285 864 468 789 672 384 1280 1292 514
451 1065 1225 1526 1670 1605 1359 1668 1331 1643 1996 1957 1986 2055 1692 1782 1994 2067 1793 1706 1731 1622 1572 1597 1609 1117 1331 1359 1210 847 320 66 0 160 791 826 1409 1312 1070 617 526 644 532
614 1275 1220 1288 1504 1550 1363 1573 1685 1433 1701 1969 2256 2184 1956 1760 1751 2074 2090 1733 1520 1468 1540 1567 1628 1260 1274 1418 1630 1164 1100 37 0 61 29 184 641 947 1381 1407 913 678 695
747 924 979 1239 1307 1337 1116 1549 1795 1828 1707 2060 2073 2118 2156 1912 2007 1970 1898 1848 1730 1648 1490 1290 1238 1148 1303 1365 1369 983 966 38 38 173 467 832 1142 683 340 1641 1030 1093 489
771 959 1011 975 1156 1300 1427 1485 1469 1676 1833 1922 2128 2090 2059 2117 1872 1456 1857 1730 1642 1608 1273 938 848 949 991 1483 1202 639 417 155 215 186 277 828 1211 1794 637 221 245 677 603
523 750 1031 942 1116 1217 1390 1504 1713 1750 1810 2176 2114 2086 1997 2076 1865 1642 1814 1782 1649 1421 1138 978 1044 1052 753 839 1171 1530 1253 589 311 560 432 390 494 969 1026 415 258 275 346
452 694 971 1039 1231 1381 1548 1536 1341 1504 1387 1721 1786 1786 1719 1658 1888 1905 1804 1569 1566 1219 1070 1059 986 965 1119 1415 1855 1539 1288 687 229 320 489 434 588 1102 1023 679 543 676 825
507 601 927 979 1130 1414 1323 1074 1065 1061 1062 1016 1307 1511 1320 1357 1646 1519 1386 1568 1490 1183 1331 1376 1328 1111 906 1127 1542 1667 1124 865 385 333 374 327 671 1035 1691 1599 1099 1130 1202
452 543 788 917 1063 1159 839 974 1021 1106 965 965 1137 1139 1154 1262 1303 1225 1457 1376 1240 1405 1258 1366 1231 846 646 606 1170 1613 1138 1093 493 507 459 94 300 591 808 1518 1633 1710 1523
352 456 612 746 949 833 743 872 998 1191 1137 1067 1088 1094 995 995 996 1246 1417 1417 1466 1366 1157 1370 1175 1166 841 824 893 1360 1223 987 547 552 639 765 294 604 727 808 1066 1339 1572
342 400 473 572 606 574 759 873 983 1158 1144 1037 963 921 825 1066 1054 1028 1161 1424 1407 1443 1515 1268 991 1389 1196 820 883 926 985 815 739 814 845 848 870 654 544 831 1106 1353 1650
439 494 473 430 279 460 677 748 907 1117 1157 1166 1109 809 792 1137 1183 1122 1343 1426 1523 1368 1399 1416 1471 1467 1219 1297 1115 1055 954 1004 1218 1243 1191 1179 1222 1257 1203 967 966 1195 1521
565 581 589 575 249 357 454 613 734 890 1017 1171 1363 1287 1231 1155 1211 1684 1468 1436 1539 1671 1363 1376 1834 1718 1317 1112 888 1093 1128 1177 1250 1209 1470 1492 1562 1589 1586 1462 1123 1237 1494
620 702 712 573 177 40 359 408 518 759 835 938 1315 1240 1262 1154 1456 1534 1334 1606 1438 1417 1404 1851 1775 1443 1148 945 1036 1032 1143 1148 1267 1379 1323 1360 1469 1634 1739 1899 1988 1996 1621
599 594 613 575 297 2 137 322 415 559 759 857 1160 1265 1359 1274 1430 1587 1475 1528 1498 1532 1455 1746 1714 1432 1615 1523 1443 948 900 730 986 1084 1123 1269 1467 1529 1659 1888 2030 2075 2197
505 537 524 491 319 142 72 248 329 611 639 961 1039 1223 1258 1420 1301 1506 1312 1250 1407 1559 1478 1894 1732 1696 1865 1520 1533 1136 916 906 1032 734 914 1036 1209 1345 1850 2180 2299 2405 2515
503 445 420 420 149 112 271 204 207 513 541 734 877 1041 1140 1353 1221 1209 1390 1256 1464 1533 1425 1789 1985 2001 1869 1709 1615 1468 1079 823 1044 834 1220 1503 1814 1882 2078 2383 2732 2798 3035
463 459 395 353 61 363 562 286 217 354 484 640 700 751 953 1364 1362 1099 1178 1275 1642 1597 1358 2033 2033 2295 2365 1879 2162 1661 1730 1826 1866 1113 1595 2048 2149 2124 2248 2378 2995 3189 3222
486 421 374 394 399 464 635 526 465 284 299 601 837 679 850 1256 1501 1308 1338 1454 1597 1640 1371 2013 1797 2130 2222 1874 1933 2029 1376 844 1605 1806 1682 2015 2193 2336 2308 2890 3093 2740 2785
383 393 382 419 418 492 567 743 693 421 436 438 718 847 942 1300 1377 1369 1423 1360 1578 1465 1383 1974 1643 1893 1798 1891 1879 2279 2118 1669 1304 1411 1727 1813 2212 2284 2662 2798 2602 2650 2377

GFSSE_con_mlcape_123.txt.gz
CAPE
584 763 1513 1360 1375 951 801 375 366 761 883 1409 1044 1648 1604 1604 1544 1486 1498 1452 1393 1373 1223 1047 983 805 958 1208 1197 1019 767 963 1424 1403 1246 1125 903 708 827 706 906 955 1327
524 810 1523 1397 1398 1392 726 837 884 1173 1486 1789 1760 1722 1875 1588 1444 1460 1472 1313 1386 1434 1414 1332 1345 1334 1390 1325 1286 1400 559 470 1091 642 742 1168 969 1209 1007 1015 1182 1286 1457
651 766 1237 1626 1222 1501 1461 1303 1917 2039 2130 1543 1684 1651 1714 1907 1780 1663 1495 1400 1543 1580 1551 1467 1445 1124 872 1098 1348 1210 1035 1052 788 567 829 663 917 1203 1267 723 1015 1469 1516
599 882 1083 1595 1523 1590 1731 1957 2094 2023 1963 2074 2021 2157 1747 1822 1851 1808 1668 1483 1425 1482 1379 1309 1590 893 768 421 1174 1144 746 626 559 623 793 6 37 833 1278 1269 1399 1537 1385
858 1321 1226 1734 1742 1753 1821 1934 2168 2007 1894 2020 2098 2107 1928 1878 1847 1881 1711 1652 1416 1408 1553 1682 1565 1713 1372 608 571 559 834 907 944 98 1256 376 0 820 1153 942 589 513 812
926 983 1331 1770 1863 1893 1884 1846 2004 2075 1818 1683 1978 2076 2043 1911 1939 1578 1335 1209 1294 1450 1676 1616 1609 1733 1527 1400 397 76 385 573 1176 173 435 148 0 523 1607 950 459 451 513
430 761 1218 1544 1594 1713 2009 1852 2009 2055 1908 1785 1819 2091 2055 2000 1956 1632 1573 1349 1588 1716 1599 1593 1631 1521 1256 885 326 0 6 96 396 385 319 552 1103 771 502 633 634 627 724
304 281 298 1350 1298 1160 1354 1857 1912 2108 2051 1864 1923 1816 1931 2005 1945 1849 1760 1608 1616 1542 1440 1400 1497 1732 1219 724 475 0 0 122 18 138 41 148 1056 1587 1158 707 735 717 635
632 721 873 1275 1399 1779 1415 1624 2049 2098 1908 1891 1876 1794 1990 2018 1903 1927 1625 1750 1742 1747 1602 1539 1513 1702 1830 1261 707 0 0 30 221 321 31 160 538 705 1331 816 1268 758 661
741 881 1132 1019 957 1347 1610 1580 1830 2144 2169 2059 2098 2103 1872 1640 1656 1576 1157 1677 1561 1551 1545 1430 1205 1379 1494 864 417 271 109 234 134 113 120 1080 1780 776 416 384 449 497 646
518 655 840 858 1095 973 1096 1247 1631 1869 2224 1581 1788 1556 1726 1813 1643 1699 1094 1593 1341 1024 894 642 631 1167 1561 1069 615 598 664 89 55 0 0 283 914 948 781 538 524 570 662
420 751 855 865 711 1101 948 1643 1137 1217 1776 1725 1579 1657 1704 1668 852 631 722 836 613 747 872 883 951 1074 1668 1624 1055 837 130 35 136 0 0 29 440 1005 1227 996 694 838 1115
588 685 687 959 1401 1121 1311 1654 1446 1399 1430 1301 1527 1514 615 768 1142 679 1389 1328 1304 1494 1397 1304 790 738 690 841 405 426 171 123 103 0 0 48 286 718 1341 1355 1422 1494 1762
310 396 893 1030 1547 1339 665 932 967 1028 945 847 1162 952 1000 911 1348 1188 793 831 1111 979 1038 806 618 570 905 990 949 740 613 405 341 165 13 14 168 415 697 1110 1642 1783 2014
327 367 616 977 1156 1303 1281 587 593 628 847 839 904 1102 1044 1133 1292 1260 1428 976 1152 847 851 852 764 643 611 1079 1136 1048 804 982 968 786 882 494 498 696 919 1201 1447 1716 1971
321 348 549 744 1037 1200 474 677 322 829 614 761 775 1421 1689 1432 1648 1535 1511 867 1047 1066 905 1141 1692 741 650 703 1006 1145 1083 1182 1795 1887 1643 1390 1102 1112 1237 1391 1525 1671 1876
258 343 389 620 932 906 622 495 458 353 645 518 1222 1789 1633 1414 2088 1474 963 1070 1141 1172 1718 1217 1368 1243 783 636 935 1110 1223 1596 1707 2063 1684 1836 1835 1596 1604 1401 1446 1551 1749
267 350 325 458 725 682 659 471 357 572 508 606 822 1265 1568 1794 1635 1874 1556 1248 1188 991 830 938 1174 920 1006 959 1181 1099 1310 1486 1877 2035 1867 1980 1926 2400 2160 1997 1854 1687 1894
280 449 405 464 695 655 731 747 669 822 547 610 651 801 1317 1398 1640 2136 1450 1269 2189 815 948 1375 863 1426 1111 886 882 1135 1453 1508 1700 1558 1915 2061 2079 2037 2366 2610 2589 2163 2426
275 515 506 455 690 979 678 661 749 724 399 600 778 1486 1302 1284 1507 2260 1330 1335 2411 1060 1113 1526 1979 1360 1317 1428 937 1162 1349 1476 1650 1522 1721 1774 1941 2098 2398 2988 2554 2642 2783
303 512 657 633 779 792 665 502 568 484 555 503 720 1277 1526 1364 1566 1807 1528 1329 1710 1194 2064 1954 1979 1567 1174 1200 1426 972 1041 1477 1545 1430 1576 1544 1784 2062 2313 2735 3117 3242 3098
361 496 625 793 937 910 837 708 791 638 775 812 961 747 1171 1193 1645 1393 1796 1686 1206 1264 2175 2326 2288 2476 1092 1427 1582 1182 1011 1111 1065 1542 1708 1827 2060 1955 2061 2573 3404 3538 3377
246 544 772 1034 1044 814 753 970 1076 1051 864 995 1207 944 1038 1197 1196 1635 1673 1961 1296 1619 1728 2370 2432 2265 2223 1464 2106 2195 1692 1205 867 1463 1831 2020 2362 1864 2233 3043 3209 3114 2933
312 331 607 879 1146 1042 983 854 914 636 643 693 637 1017 1161 993 1043 1430 1569 1645 1786 2052 1386 1894 1977 3524 2575 1595 1483 1615 2105 2047 2368 1466 1533 1655 2446 2316 2747 2631 2245 2675 2565
258 242 421 861 1131 1025 1132 1064 898 887 895 852 925 1340 1616 1181 1113 1147 1462 1666 1694 1138 1713 2181 2487 3205 2539 2850 2089 1702 1764 1462 1536 1848 1251 1381 1199 1211 2056 2350 2412 2359 2353
256 234 231 619 1117 1025 1378 1252 1265 881 928 795 827 1232 916 1002 1145 1400 1349 1642 1693 1926 1744 1815 2386 2709 3128 3119 3161 2380 1784 1654 1335 1613 1404 1539 1259 1781 1705 2004 1938 2006 1985